Wetterdaten: Dienstag, 30.06.2020
Datum Zeit Temp. Aussen Temp. o. S. Temp +5cm Feuchte Auss Luftdruck Regen Sonnenschein Regendauer Solar Windben Empfang
30.06.2020 00:00 15,6 C 14,4 C 15,0 C 68 % 1011,7 hPa 0,0 l/m 0 min 0 min 0 W/m 16,1 km/h (3 Bft) 100,00 %
30.06.2020 00:02 15,6 C 14,4 C 15,0 C 68 % 1011,8 hPa 0,0 l/m 0 min 0 min 0 W/m 22,5 km/h (4 Bft) 97,44 %
30.06.2020 00:04 15,6 C 14,4 C 15,0 C 68 % 1011,8 hPa 0,0 l/m 0 min 0 min 0 W/m 6,4 km/h (2 Bft) 100,00 %
30.06.2020 00:08 15,6 C 14,4 C 15,0 C 68 % 1011,7 hPa 0,0 l/m 0 min 0 min 0 W/m 9,7 km/h (2 Bft) 100,00 %
30.06.2020 00:10 15,6 C 14,4 C 15,0 C 68 % 1011,8 hPa 0,0 l/m 0 min 0 min 0 W/m 16,1 km/h (3 Bft) 100,00 %
30.06.2020 00:12 15,6 C 14,4 C 15,0 C 68 % 1011,8 hPa 0,0 l/m 0 min 0 min 0 W/m 9,7 km/h (2 Bft) 100,00 %
30.06.2020 00:14 15,6 C 14,4 C 15,0 C 68 % 1011,8 hPa 0,0 l/m 0 min 0 min 0 W/m 12,9 km/h (3 Bft) 100,00 %
30.06.2020 00:16 15,6 C 14,4 C 15,0 C 69 % 1011,8 hPa 0,0 l/m 0 min 0 min 0 W/m 6,4 km/h (2 Bft) 100,00 %
30.06.2020 00:18 15,6 C 14,4 C 14,4 C 69 % 1011,7 hPa 0,0 l/m 0 min 0 min 0 W/m 6,4 km/h (2 Bft) 100,00 %
30.06.2020 00:20 15,6 C 14,4 C 15,0 C 68 % 1011,7 hPa 0,0 l/m 0 min 0 min 0 W/m 16,1 km/h (3 Bft) 97,87 %
30.06.2020 00:22 15,6 C 14,4 C 14,4 C 68 % 1011,7 hPa 0,0 l/m 0 min 0 min 0 W/m 12,9 km/h (3 Bft) 97,83 %
30.06.2020 00:24 15,5 C 14,4 C 14,4 C 69 % 1011,7 hPa 0,0 l/m 0 min 0 min 0 W/m 6,4 km/h (2 Bft) 100,00 %
30.06.2020 00:26 15,5 C 14,4 C 14,4 C 69 % 1011,7 hPa 0,0 l/m 0 min 0 min 0 W/m 12,9 km/h (3 Bft) 100,00 %
30.06.2020 00:28 15,5 C 13,9 C 14,4 C 69 % 1011,8 hPa 0,0 l/m 0 min 0 min 0 W/m 3,2 km/h (1 Bft) 97,87 %
30.06.2020 00:30 15,5 C 13,9 C 14,4 C 69 % 1011,7 hPa 0,0 l/m 0 min 0 min 0 W/m 12,9 km/h (3 Bft) 95,74 %
30.06.2020 00:32 15,4 C 13,9 C 14,4 C 69 % 1011,6 hPa 0,0 l/m 0 min 0 min 0 W/m 6,4 km/h (2 Bft) 100,00 %
30.06.2020 00:34 15,4 C 13,9 C 14,4 C 69 % 1011,6 hPa 0,0 l/m 0 min 0 min 0 W/m 3,2 km/h (1 Bft) 100,00 %
30.06.2020 00:36 15,4 C 13,9 C 14,4 C 69 % 1011,6 hPa 0,0 l/m 0 min 0 min 0 W/m 6,4 km/h (2 Bft) 100,00 %
30.06.2020 00:38 15,4 C 13,9 C 13,9 C 69 % 1011,6 hPa 0,0 l/m 0 min 0 min 0 W/m 12,9 km/h (3 Bft) 93,62 %
30.06.2020 00:40 15,3 C 13,9 C 13,9 C 70 % 1011,6 hPa 0,0 l/m 0 min 0 min 0 W/m 3,2 km/h (1 Bft) 95,74 %
30.06.2020 00:42 15,3 C 13,9 C 13,9 C 70 % 1011,6 hPa 0,0 l/m 0 min 0 min 0 W/m 16,1 km/h (3 Bft) 95,74 %
30.06.2020 00:44 15,3 C 13,9 C 13,9 C 70 % 1011,6 hPa 0,0 l/m 0 min 0 min 0 W/m 6,4 km/h (2 Bft) 95,65 %
30.06.2020 00:46 15,3 C 13,9 C 13,9 C 70 % 1011,6 hPa 0,0 l/m 0 min 0 min 0 W/m 6,4 km/h (2 Bft) 93,62 %
30.06.2020 00:48 15,2 C 13,9 C 13,9 C 70 % 1011,6 hPa 0,0 l/m 0 min 0 min 0 W/m 3,2 km/h (1 Bft) 95,74 %
30.06.2020 00:50 15,2 C 13,9 C 13,9 C 70 % 1011,6 hPa 0,0 l/m 0 min 0 min 0 W/m 0,0 km/h (0 Bft) 91,49 %
30.06.2020 00:52 15,2 C 13,9 C 13,9 C 70 % 1011,6 hPa 0,0 l/m 0 min 0 min 0 W/m 3,2 km/h (1 Bft) 95,74 %
30.06.2020 00:54 15,1 C 13,9 C 13,9 C 70 % 1011,5 hPa 0,0 l/m 0 min 0 min 0 W/m 16,1 km/h (3 Bft) 93,62 %
30.06.2020 00:56 15,1 C 13,9 C 13,9 C 70 % 1011,6 hPa 0,0 l/m 0 min 0 min 0 W/m 12,9 km/h (3 Bft) 95,65 %
30.06.2020 00:58 15,1 C 13,9 C 13,9 C 70 % 1011,6 hPa 0,0 l/m 0 min 0 min 0 W/m 16,1 km/h (3 Bft) 95,74 %
30.06.2020 01:00 15,1 C 13,9 C 13,9 C 70 % 1011,6 hPa 0,0 l/m 0 min 0 min 0 W/m 16,1 km/h (3 Bft) 95,74 %
30.06.2020 01:02 15,0 C 13,9 C 13,9 C 70 % 1011,6 hPa 0,0 l/m 0 min 0 min 0 W/m 9,7 km/h (2 Bft) 95,74 %
30.06.2020 01:04 15,0 C 13,9 C 13,9 C 70 % 1011,6 hPa 0,0 l/m 0 min 0 min 0 W/m 6,4 km/h (2 Bft) 95,74 %
30.06.2020 01:06 14,9 C 13,9 C 13,9 C 70 % 1011,5 hPa 0,0 l/m 0 min 0 min 0 W/m 19,3 km/h (3 Bft) 93,48 %
30.06.2020 01:08 14,9 C 13,9 C 13,9 C 70 % 1011,5 hPa 0,0 l/m 0 min 0 min 0 W/m 16,1 km/h (3 Bft) 93,62 %
30.06.2020 01:10 14,9 C 13,9 C 13,9 C 70 % 1011,6 hPa 0,0 l/m 0 min 0 min 0 W/m 9,7 km/h (2 Bft) 93,62 %
30.06.2020 01:12 14,9 C 13,9 C 13,9 C 70 % 1011,6 hPa 0,0 l/m 0 min 0 min 0 W/m 12,9 km/h (3 Bft) 95,74 %
30.06.2020 01:14 14,9 C 13,9 C 13,9 C 69 % 1011,6 hPa 0,0 l/m 0 min 0 min 0 W/m 19,3 km/h (3 Bft) 93,62 %
30.06.2020 01:16 14,9 C 13,9 C 13,9 C 69 % 1011,6 hPa 0,0 l/m 0 min 0 min 0 W/m 12,9 km/h (3 Bft) 95,74 %
30.06.2020 01:18 14,8 C 13,9 C 13,9 C 69 % 1011,5 hPa 0,0 l/m 0 min 0 min 0 W/m 25,7 km/h (4 Bft) 93,48 %
30.06.2020 01:20 14,9 C 13,9 C 13,9 C 69 % 1011,5 hPa 0,0 l/m 0 min 0 min 0 W/m 22,5 km/h (4 Bft) 97,87 %
30.06.2020 01:22 14,9 C 13,9 C 13,9 C 69 % 1011,5 hPa 0,0 l/m 0 min 0 min 0 W/m 16,1 km/h (3 Bft) 97,87 %
30.06.2020 01:24 14,9 C 13,9 C 13,9 C 69 % 1011,5 hPa 0,0 l/m 0 min 0 min 0 W/m 19,3 km/h (3 Bft) 95,74 %
30.06.2020 01:26 14,9 C 13,9 C 13,9 C 69 % 1011,5 hPa 0,0 l/m 0 min 0 min 0 W/m 12,9 km/h (3 Bft) 97,87 %
30.06.2020 01:28 14,9 C 13,9 C 13,9 C 69 % 1011,5 hPa 0,0 l/m 0 min 0 min 0 W/m 9,7 km/h (2 Bft) 97,87 %
30.06.2020 01:30 14,9 C 13,9 C 13,9 C 69 % 1011,4 hPa 0,0 l/m 0 min 0 min 0 W/m 9,7 km/h (2 Bft) 100,00 %
30.06.2020 01:32 14,9 C 13,9 C 13,9 C 69 % 1011,4 hPa 0,0 l/m 0 min 0 min 0 W/m 6,4 km/h (2 Bft) 100,00 %
30.06.2020 01:34 14,8 C 13,9 C 13,9 C 69 % 1011,4 hPa 0,0 l/m 0 min 0 min 0 W/m 6,4 km/h (2 Bft) 97,87 %
30.06.2020 01:36 14,8 C 13,9 C 13,9 C 69 % 1011,3 hPa 0,0 l/m 0 min 0 min 0 W/m 6,4 km/h (2 Bft) 100,00 %
30.06.2020 01:38 14,8 C 13,3 C 13,9 C 69 % 1011,4 hPa 0,0 l/m 0 min 0 min 0 W/m 16,1 km/h (3 Bft) 100,00 %
30.06.2020 01:40 14,8 C 13,9 C 13,9 C 69 % 1011,4 hPa 0,0 l/m 0 min 0 min 0 W/m 6,4 km/h (2 Bft) 95,74 %
30.06.2020 01:42 14,8 C 13,9 C 13,9 C 69 % 1011,4 hPa 0,0 l/m 0 min 0 min 0 W/m 9,7 km/h (2 Bft) 97,83 %
30.06.2020 01:44 14,8 C 13,9 C 13,9 C 69 % 1011,3 hPa 0,0 l/m 0 min 0 min 0 W/m 16,1 km/h (3 Bft) 97,87 %
30.06.2020 01:46 14,8 C 13,9 C 13,9 C 69 % 1011,3 hPa 0,0 l/m 0 min 0 min 0 W/m 12,9 km/h (3 Bft) 97,87 %
30.06.2020 01:48 14,7 C 13,9 C 13,9 C 69 % 1011,3 hPa 0,0 l/m 0 min 0 min 0 W/m 12,9 km/h (3 Bft) 100,00 %
30.06.2020 01:50 14,7 C 13,9 C 13,9 C 69 % 1011,3 hPa 0,0 l/m 0 min 0 min 0 W/m 16,1 km/h (3 Bft) 95,74 %
30.06.2020 01:52 14,7 C 13,3 C 13,9 C 69 % 1011,3 hPa 0,0 l/m 0 min 0 min 0 W/m 6,4 km/h (2 Bft) 97,87 %
30.06.2020 01:54 14,7 C 13,3 C 13,9 C 69 % 1011,3 hPa 0,0 l/m 0 min 0 min 0 W/m 6,4 km/h (2 Bft) 97,83 %
30.06.2020 01:56 14,7 C 13,3 C 13,9 C 69 % 1011,2 hPa 0,0 l/m 0 min 0 min 0 W/m 12,9 km/h (3 Bft) 97,87 %
30.06.2020 01:58 14,7 C 13,3 C 13,9 C 69 % 1011,3 hPa 0,0 l/m 0 min 0 min 0 W/m 19,3 km/h (3 Bft) 97,87 %
30.06.2020 02:00 14,6 C 13,9 C 13,9 C 69 % 1011,2 hPa 0,0 l/m 0 min 0 min 0 W/m 16,1 km/h (3 Bft) 97,87 %
30.06.2020 02:02 14,6 C 13,3 C 13,9 C 69 % 1011,2 hPa 0,0 l/m 0 min 0 min 0 W/m 6,4 km/h (2 Bft) 97,87 %
30.06.2020 02:04 14,6 C 13,3 C 13,9 C 69 % 1011,2 hPa 0,0 l/m 0 min 0 min 0 W/m 12,9 km/h (3 Bft) 97,87 %
30.06.2020 02:06 14,6 C 13,3 C 13,3 C 70 % 1011,2 hPa 0,0 l/m 0 min 0 min 0 W/m 3,2 km/h (1 Bft) 97,83 %
30.06.2020 02:08 14,6 C 13,3 C 13,3 C 70 % 1011,1 hPa 0,0 l/m 0 min 0 min 0 W/m 16,1 km/h (3 Bft) 97,87 %
30.06.2020 02:10 14,6 C 13,3 C 13,3 C 70 % 1011,2 hPa 0,0 l/m 0 min 0 min 0 W/m 3,2 km/h (1 Bft) 97,87 %
30.06.2020 02:12 14,6 C 13,3 C 13,3 C 70 % 1011,2 hPa 0,0 l/m 0 min 0 min 0 W/m 22,5 km/h (4 Bft) 97,87 %
30.06.2020 02:14 14,5 C 13,3 C 13,3 C 70 % 1011,1 hPa 0,0 l/m 0 min 0 min 0 W/m 9,7 km/h (2 Bft) 97,87 %
30.06.2020 02:16 14,5 C 13,3 C 13,3 C 69 % 1011,1 hPa 0,0 l/m 0 min 0 min 0 W/m 9,7 km/h (2 Bft) 97,87 %
30.06.2020 02:18 14,5 C 13,3 C 13,3 C 69 % 1011,2 hPa 0,0 l/m 0 min 0 min 0 W/m 12,9 km/h (3 Bft) 97,83 %
30.06.2020 02:20 14,4 C 13,3 C 13,9 C 69 % 1011,1 hPa 0,0 l/m 0 min 0 min 0 W/m 12,9 km/h (3 Bft) 97,87 %
30.06.2020 02:22 14,4 C 13,3 C 13,9 C 69 % 1011,1 hPa 0,0 l/m 0 min 0 min 0 W/m 9,7 km/h (2 Bft) 97,87 %
30.06.2020 02:24 14,4 C 13,3 C 13,9 C 69 % 1011,0 hPa 0,0 l/m 0 min 0 min 0 W/m 16,1 km/h (3 Bft) 97,87 %
30.06.2020 02:26 14,4 C 13,3 C 13,3 C 69 % 1011,1 hPa 0,0 l/m 0 min 0 min 0 W/m 22,5 km/h (4 Bft) 93,62 %
30.06.2020 02:28 14,4 C 13,3 C 13,3 C 69 % 1011,1 hPa 0,0 l/m 0 min 0 min 0 W/m 16,1 km/h (3 Bft) 97,83 %
30.06.2020 02:30 14,4 C 13,3 C 13,3 C 70 % 1011,1 hPa 0,0 l/m 0 min 0 min 0 W/m 19,3 km/h (3 Bft) 97,87 %
30.06.2020 02:32 14,3 C 13,3 C 13,3 C 69 % 1011,1 hPa 0,0 l/m 0 min 0 min 0 W/m 19,3 km/h (3 Bft) 97,87 %
30.06.2020 02:34 14,3 C 13,3 C 13,3 C 69 % 1011,1 hPa 0,0 l/m 0 min 0 min 0 W/m 16,1 km/h (3 Bft) 97,87 %
30.06.2020 02:36 14,3 C 13,3 C 13,3 C 70 % 1011,0 hPa 0,0 l/m 0 min 0 min 0 W/m 9,7 km/h (2 Bft) 97,87 %
30.06.2020 02:38 14,3 C 13,3 C 13,3 C 70 % 1011,0 hPa 0,0 l/m 0 min 0 min 0 W/m 16,1 km/h (3 Bft) 95,74 %
30.06.2020 02:40 14,3 C 13,3 C 13,3 C 70 % 1011,0 hPa 0,0 l/m 0 min 0 min 0 W/m 6,4 km/h (2 Bft) 95,65 %
30.06.2020 02:42 14,3 C 13,3 C 13,3 C 70 % 1011,0 hPa 0,0 l/m 0 min 0 min 0 W/m 16,1 km/h (3 Bft) 95,74 %
30.06.2020 02:44 14,3 C 13,3 C 13,3 C 70 % 1010,9 hPa 0,0 l/m 0 min 0 min 0 W/m 12,9 km/h (3 Bft) 97,87 %
30.06.2020 02:46 14,3 C 13,3 C 13,3 C 70 % 1010,9 hPa 0,0 l/m 0 min 0 min 0 W/m 12,9 km/h (3 Bft) 97,87 %
30.06.2020 02:48 14,3 C 13,3 C 13,3 C 70 % 1010,9 hPa 0,0 l/m 0 min 0 min 0 W/m 6,4 km/h (2 Bft) 95,74 %
30.06.2020 02:50 14,3 C 13,3 C 13,3 C 70 % 1011,0 hPa 0,0 l/m 0 min 0 min 0 W/m 12,9 km/h (3 Bft) 97,87 %
30.06.2020 02:52 14,3 C 12,8 C 13,3 C 70 % 1011,0 hPa 0,0 l/m 0 min 0 min 0 W/m 6,4 km/h (2 Bft) 97,83 %
30.06.2020 02:54 14,3 C 13,3 C 13,3 C 70 % 1011,0 hPa 0,0 l/m 0 min 0 min 0 W/m 12,9 km/h (3 Bft) 95,74 %
30.06.2020 02:56 14,3 C 13,3 C 13,3 C 70 % 1011,0 hPa 0,0 l/m 0 min 0 min 0 W/m 19,3 km/h (3 Bft) 95,56 %
30.06.2020 02:58 14,3 C 12,8 C 13,3 C 70 % 1011,0 hPa 0,0 l/m 0 min 0 min 0 W/m 12,9 km/h (3 Bft) 95,74 %
30.06.2020 03:00 14,3 C 12,8 C 13,3 C 71 % 1011,0 hPa 0,0 l/m 0 min 0 min 0 W/m 12,9 km/h (3 Bft) 97,87 %
30.06.2020 03:02 14,3 C 12,8 C 13,3 C 71 % 1011,0 hPa 0,0 l/m 0 min 0 min 0 W/m 9,7 km/h (2 Bft) 100,00 %
30.06.2020 03:04 14,3 C 12,8 C 13,3 C 71 % 1010,9 hPa 0,0 l/m 0 min 0 min 0 W/m 3,2 km/h (1 Bft) 97,87 %
30.06.2020 03:06 14,3 C 12,8 C 13,3 C 71 % 1011,0 hPa 0,0 l/m 0 min 0 min 0 W/m 6,4 km/h (2 Bft) 97,83 %
30.06.2020 03:08 14,2 C 12,8 C 13,3 C 71 % 1011,0 hPa 0,0 l/m 0 min 0 min 0 W/m 6,4 km/h (2 Bft) 100,00 %
30.06.2020 03:10 14,2 C 12,8 C 12,8 C 71 % 1010,9 hPa 0,0 l/m 0 min 0 min 0 W/m 9,7 km/h (2 Bft) 93,62 %
30.06.2020 03:12 14,2 C 12,8 C 12,8 C 71 % 1010,9 hPa 0,0 l/m 0 min 0 min 0 W/m 9,7 km/h (2 Bft) 53,66 %
30.06.2020 03:14 14,1 C 12,8 C 12,8 C 71 % 1010,9 hPa 0,0 l/m 0 min 0 min 0 W/m 12,9 km/h (3 Bft) 95,74 %
30.06.2020 03:16 14,1 C 12,8 C 12,8 C 71 % 1010,8 hPa 0,0 l/m 0 min 0 min 0 W/m 9,7 km/h (2 Bft) 97,83 %
30.06.2020 03:18 14,1 C 12,8 C 12,8 C 72 % 1010,8 hPa 0,0 l/m 0 min 0 min 0 W/m 9,7 km/h (2 Bft) 97,87 %
30.06.2020 03:20 14,1 C 12,8 C 12,8 C 72 % 1010,8 hPa 0,0 l/m 0 min 0 min 0 W/m 9,7 km/h (2 Bft) 95,74 %
30.06.2020 03:22 14,1 C 12,8 C 12,8 C 72 % 1010,8 hPa 0,0 l/m 0 min 0 min 0 W/m 16,1 km/h (3 Bft) 97,87 %
30.06.2020 03:24 14,1 C 12,8 C 12,8 C 72 % 1010,7 hPa 0,0 l/m 0 min 0 min 0 W/m 19,3 km/h (3 Bft) 95,74 %
30.06.2020 03:26 14,0 C 12,8 C 13,3 C 72 % 1010,8 hPa 0,0 l/m 0 min 0 min 0 W/m 12,9 km/h (3 Bft) 97,87 %
30.06.2020 03:28 14,0 C 12,8 C 12,8 C 72 % 1010,8 hPa 0,0 l/m 0 min 0 min 0 W/m 6,4 km/h (2 Bft) 97,83 %
30.06.2020 03:30 14,0 C 12,8 C 12,8 C 72 % 1010,8 hPa 0,0 l/m 0 min 0 min 0 W/m 12,9 km/h (3 Bft) 95,74 %
30.06.2020 03:32 14,0 C 12,8 C 12,8 C 73 % 1010,8 hPa 0,0 l/m 0 min 0 min 0 W/m 9,7 km/h (2 Bft) 95,74 %
30.06.2020 03:34 13,9 C 12,8 C 12,8 C 73 % 1010,8 hPa 0,0 l/m 0 min 0 min 0 W/m 6,4 km/h (2 Bft) 97,87 %
30.06.2020 03:36 13,9 C 12,8 C 12,8 C 73 % 1010,8 hPa 0,0 l/m 0 min 0 min 0 W/m 3,2 km/h (1 Bft) 93,62 %
30.06.2020 03:38 13,9 C 12,8 C 12,8 C 73 % 1010,8 hPa 0,0 l/m 0 min 0 min 0 W/m 16,1 km/h (3 Bft) 95,74 %
30.06.2020 03:40 13,9 C 12,8 C 12,8 C 73 % 1010,8 hPa 0,0 l/m 0 min 0 min 0 W/m 6,4 km/h (2 Bft) 95,65 %
30.06.2020 03:42 13,9 C 12,8 C 12,8 C 73 % 1010,8 hPa 0,0 l/m 0 min 0 min 0 W/m 9,7 km/h (2 Bft) 95,74 %
30.06.2020 03:44 13,9 C 12,8 C 12,8 C 73 % 1010,8 hPa 0,0 l/m 0 min 0 min 0 W/m 16,1 km/h (3 Bft) 93,62 %
30.06.2020 03:46 13,8 C 12,8 C 12,8 C 74 % 1010,9 hPa 0,0 l/m 0 min 0 min 0 W/m 6,4 km/h (2 Bft) 95,74 %
30.06.2020 03:48 13,8 C 12,8 C 12,8 C 74 % 1010,8 hPa 0,0 l/m 0 min 0 min 0 W/m 6,4 km/h (2 Bft) 95,74 %
30.06.2020 03:50 13,8 C 12,8 C 12,8 C 74 % 1010,7 hPa 0,0 l/m 0 min 0 min 0 W/m 19,3 km/h (3 Bft) 95,74 %
30.06.2020 03:52 13,8 C 12,8 C 12,8 C 74 % 1010,9 hPa 0,0 l/m 0 min 0 min 0 W/m 22,5 km/h (4 Bft) 95,65 %
30.06.2020 03:54 13,8 C 12,8 C 12,8 C 74 % 1010,7 hPa 0,0 l/m 0 min 0 min 0 W/m 9,7 km/h (2 Bft) 95,74 %
30.06.2020 03:56 13,8 C 12,8 C 12,8 C 75 % 1010,8 hPa 0,0 l/m 0 min 0 min 0 W/m 12,9 km/h (3 Bft) 93,62 %
30.06.2020 03:58 13,8 C 12,8 C 12,8 C 75 % 1010,8 hPa 0,0 l/m 0 min 0 min 0 W/m 16,1 km/h (3 Bft) 97,87 %
30.06.2020 04:00 13,8 C 12,8 C 12,8 C 75 % 1010,8 hPa 0,0 l/m 0 min 0 min 0 W/m 9,7 km/h (2 Bft) 95,74 %
30.06.2020 04:02 13,8 C 12,8 C 12,8 C 75 % 1010,8 hPa 0,0 l/m 0 min 0 min 0 W/m 6,4 km/h (2 Bft) 95,24 %
30.06.2020 04:04 13,8 C 12,8 C 12,8 C 75 % 1010,8 hPa 0,0 l/m 0 min 0 min 0 W/m 12,9 km/h (3 Bft) 97,87 %
30.06.2020 04:06 13,8 C 12,8 C 12,8 C 75 % 1010,7 hPa 0,0 l/m 0 min 0 min 0 W/m 12,9 km/h (3 Bft) 97,87 %
30.06.2020 04:08 13,8 C 12,8 C 12,8 C 75 % 1010,7 hPa 0,0 l/m 0 min 0 min 0 W/m 22,5 km/h (4 Bft) 97,87 %
30.06.2020 04:10 13,8 C 12,8 C 12,8 C 75 % 1010,8 hPa 0,0 l/m 0 min 0 min 0 W/m 19,3 km/h (3 Bft) 95,74 %
30.06.2020 04:12 13,8 C 12,8 C 12,8 C 75 % 1010,7 hPa 0,0 l/m 0 min 0 min 0 W/m 6,4 km/h (2 Bft) 97,87 %
30.06.2020 04:14 13,8 C 12,8 C 12,8 C 75 % 1010,7 hPa 0,0 l/m 0 min 0 min 0 W/m 16,1 km/h (3 Bft) 95,65 %
30.06.2020 04:16 13,8 C 12,8 C 12,8 C 75 % 1010,7 hPa 0,0 l/m 0 min 0 min 0 W/m 19,3 km/h (3 Bft) 97,87 %
30.06.2020 04:18 13,8 C 12,8 C 12,8 C 75 % 1010,7 hPa 0,0 l/m 0 min 0 min 0 W/m 19,3 km/h (3 Bft) 95,74 %
30.06.2020 04:20 13,8 C 12,8 C 12,8 C 75 % 1010,7 hPa 0,0 l/m 0 min 0 min 0 W/m 25,7 km/h (4 Bft) 97,87 %
30.06.2020 04:22 13,8 C 12,8 C 12,8 C 76 % 1010,6 hPa 0,0 l/m 0 min 0 min 0 W/m 19,3 km/h (3 Bft) 95,74 %
30.06.2020 04:24 13,8 C 12,8 C 12,8 C 76 % 1010,7 hPa 0,0 l/m 0 min 0 min 0 W/m 16,1 km/h (3 Bft) 97,87 %
30.06.2020 04:26 13,8 C 12,8 C 12,8 C 76 % 1010,6 hPa 0,0 l/m 0 min 0 min 0 W/m 12,9 km/h (3 Bft) 100,00 %
30.06.2020 04:28 13,8 C 12,8 C 12,8 C 76 % 1010,5 hPa 0,0 l/m 0 min 0 min 0 W/m 6,4 km/h (2 Bft) 97,87 %
30.06.2020 04:30 13,8 C 12,8 C 12,8 C 76 % 1010,5 hPa 0,0 l/m 0 min 0 min 0 W/m 16,1 km/h (3 Bft) 100,00 %
30.06.2020 04:32 13,7 C 12,8 C 12,8 C 76 % 1010,5 hPa 0,0 l/m 0 min 0 min 0 W/m 16,1 km/h (3 Bft) 95,74 %
30.06.2020 04:34 13,7 C 12,8 C 12,8 C 76 % 1010,5 hPa 0,0 l/m 0 min 0 min 0 W/m 9,7 km/h (2 Bft) 97,87 %
30.06.2020 04:36 13,7 C 12,8 C 12,8 C 76 % 1010,5 hPa 0,0 l/m 0 min 0 min 0 W/m 12,9 km/h (3 Bft) 100,00 %
30.06.2020 04:38 13,7 C 12,8 C 12,8 C 76 % 1010,4 hPa 0,0 l/m 0 min 0 min 0 W/m 9,7 km/h (2 Bft) 100,00 %
30.06.2020 04:40 13,7 C 12,8 C 12,8 C 76 % 1010,5 hPa 0,0 l/m 0 min 0 min 0 W/m 12,9 km/h (3 Bft) 100,00 %
30.06.2020 04:42 13,7 C 12,8 C 12,8 C 76 % 1010,4 hPa 0,0 l/m 0 min 0 min 0 W/m 16,1 km/h (3 Bft) 97,87 %
30.06.2020 04:44 13,7 C 12,2 C 12,8 C 76 % 1010,4 hPa 0,0 l/m 0 min 0 min 0 W/m 9,7 km/h (2 Bft) 97,87 %
30.06.2020 04:46 13,7 C 12,2 C 12,8 C 76 % 1010,4 hPa 0,0 l/m 0 min 0 min 0 W/m 16,1 km/h (3 Bft) 100,00 %
30.06.2020 04:48 13,7 C 12,2 C 12,8 C 77 % 1010,4 hPa 0,0 l/m 0 min 0 min 0 W/m 6,4 km/h (2 Bft) 100,00 %
30.06.2020 04:50 13,6 C 12,2 C 12,8 C 77 % 1010,4 hPa 0,0 l/m 0 min 0 min 0 W/m 9,7 km/h (2 Bft) 100,00 %
30.06.2020 04:52 13,6 C 12,2 C 12,8 C 77 % 1010,4 hPa 0,0 l/m 0 min 0 min 0 W/m 9,7 km/h (2 Bft) 100,00 %
30.06.2020 04:54 13,6 C 12,8 C 12,8 C 77 % 1010,5 hPa 0,0 l/m 0 min 0 min 0 W/m 16,1 km/h (3 Bft) 100,00 %
30.06.2020 04:56 13,6 C 12,8 C 12,8 C 77 % 1010,4 hPa 0,0 l/m 0 min 0 min 0 W/m 12,9 km/h (3 Bft) 100,00 %
30.06.2020 04:58 13,6 C 12,2 C 12,8 C 77 % 1010,4 hPa 0,0 l/m 0 min 0 min 0 W/m 9,7 km/h (2 Bft) 97,73 %
30.06.2020 05:00 13,6 C 12,2 C 12,8 C 77 % 1010,4 hPa 0,0 l/m 0 min 0 min 0 W/m 6,4 km/h (2 Bft) 100,00 %
30.06.2020 05:02 13,6 C 12,2 C 12,8 C 77 % 1010,5 hPa 0,0 l/m 0 min 0 min 0 W/m 6,4 km/h (2 Bft) 100,00 %
30.06.2020 05:04 13,6 C 12,2 C 12,8 C 77 % 1010,5 hPa 0,0 l/m 0 min 0 min 0 W/m 16,1 km/h (3 Bft) 100,00 %
30.06.2020 05:06 13,6 C 12,2 C 12,2 C 77 % 1010,6 hPa 0,0 l/m 0 min 0 min 0 W/m 12,9 km/h (3 Bft) 100,00 %
30.06.2020 05:08 13,5 C 12,2 C 12,8 C 77 % 1010,6 hPa 0,0 l/m 0 min 0 min 0 W/m 9,7 km/h (2 Bft) 100,00 %
30.06.2020 05:10 13,5 C 12,2 C 12,8 C 77 % 1010,6 hPa 0,0 l/m 0 min 0 min 0 W/m 6,4 km/h (2 Bft) 97,87 %
30.06.2020 05:12 13,5 C 12,2 C 12,8 C 77 % 1010,5 hPa 0,0 l/m 0 min 0 min 0 W/m 16,1 km/h (3 Bft) 97,87 %
30.06.2020 05:14 13,5 C 12,2 C 12,8 C 77 % 1010,6 hPa 0,0 l/m 0 min 0 min 0 W/m 9,7 km/h (2 Bft) 100,00 %
30.06.2020 05:16 13,5 C 12,2 C 12,8 C 77 % 1010,6 hPa 0,0 l/m 0 min 0 min 0 W/m 3,2 km/h (1 Bft) 100,00 %
30.06.2020 05:18 13,4 C 12,2 C 12,8 C 78 % 1010,6 hPa 0,0 l/m 0 min 0 min 0 W/m 6,4 km/h (2 Bft) 100,00 %
30.06.2020 05:20 13,4 C 12,2 C 12,8 C 78 % 1010,5 hPa 0,0 l/m 0 min 0 min 0 W/m 9,7 km/h (2 Bft) 97,87 %
30.06.2020 05:22 13,4 C 12,2 C 12,8 C 78 % 1010,6 hPa 0,0 l/m 0 min 0 min 0 W/m 12,9 km/h (3 Bft) 100,00 %
30.06.2020 05:24 13,4 C 12,2 C 12,8 C 78 % 1010,6 hPa 0,0 l/m 0 min 0 min 0 W/m 6,4 km/h (2 Bft) 100,00 %
30.06.2020 05:26 13,4 C 12,2 C 12,8 C 78 % 1010,6 hPa 0,0 l/m 0 min 0 min 0 W/m 16,1 km/h (3 Bft) 100,00 %
30.06.2020 05:28 13,4 C 12,8 C 12,8 C 78 % 1010,6 hPa 0,0 l/m 0 min 0 min 3 W/m 12,9 km/h (3 Bft) 100,00 %
30.06.2020 05:30 13,4 C 12,8 C 12,8 C 78 % 1010,7 hPa 0,0 l/m 0 min 0 min 5 W/m 22,5 km/h (4 Bft) 100,00 %
30.06.2020 05:32 13,4 C 12,8 C 12,8 C 78 % 1010,7 hPa 0,0 l/m 0 min 0 min 5 W/m 29,0 km/h (5 Bft) 97,87 %
30.06.2020 05:34 13,4 C 12,8 C 12,8 C 78 % 1010,7 hPa 0,0 l/m 0 min 0 min 5 W/m 12,9 km/h (3 Bft) 100,00 %
30.06.2020 05:36 13,5 C 12,8 C 12,8 C 79 % 1010,7 hPa 0,0 l/m 0 min 0 min 6 W/m 6,4 km/h (2 Bft) 97,83 %
30.06.2020 05:38 13,5 C 12,8 C 12,8 C 79 % 1010,7 hPa 0,0 l/m 0 min 0 min 7 W/m 12,9 km/h (3 Bft) 100,00 %
30.06.2020 05:40 13,5 C 12,8 C 12,8 C 79 % 1010,7 hPa 0,0 l/m 0 min 0 min 7 W/m 9,7 km/h (2 Bft) 95,74 %
30.06.2020 05:42 13,5 C 12,8 C 12,8 C 79 % 1010,6 hPa 0,0 l/m 0 min 0 min 9 W/m 16,1 km/h (3 Bft) 100,00 %
30.06.2020 05:44 13,6 C 12,8 C 12,8 C 79 % 1010,6 hPa 0,0 l/m 0 min 0 min 11 W/m 19,3 km/h (3 Bft) 100,00 %
30.06.2020 05:46 13,6 C 12,8 C 12,8 C 79 % 1010,7 hPa 0,0 l/m 0 min 0 min 11 W/m 16,1 km/h (3 Bft) 100,00 %
30.06.2020 05:48 13,6 C 12,8 C 12,8 C 79 % 1010,7 hPa 0,0 l/m 0 min 0 min 12 W/m 12,9 km/h (3 Bft) 97,83 %
30.06.2020 05:50 13,6 C 12,8 C 12,8 C 79 % 1010,7 hPa 0,0 l/m 0 min 0 min 14 W/m 12,9 km/h (3 Bft) 95,74 %
30.06.2020 05:52 13,6 C 12,8 C 12,8 C 79 % 1010,8 hPa 0,0 l/m 0 min 0 min 15 W/m 19,3 km/h (3 Bft) 95,74 %
30.06.2020 05:54 13,6 C 12,8 C 12,8 C 79 % 1010,8 hPa 0,0 l/m 0 min 0 min 18 W/m 6,4 km/h (2 Bft) 95,74 %
30.06.2020 05:56 13,6 C 12,8 C 12,8 C 79 % 1010,7 hPa 0,0 l/m 0 min 0 min 18 W/m 12,9 km/h (3 Bft) 95,74 %
30.06.2020 05:58 13,6 C 12,8 C 12,8 C 79 % 1010,8 hPa 0,0 l/m 0 min 0 min 19 W/m 16,1 km/h (3 Bft) 97,87 %
30.06.2020 06:00 13,6 C 12,8 C 12,8 C 80 % 1010,8 hPa 0,0 l/m 0 min 0 min 21 W/m 12,9 km/h (3 Bft) 95,65 %
30.06.2020 06:02 13,7 C 12,8 C 12,8 C 80 % 1010,8 hPa 0,0 l/m 0 min 0 min 21 W/m 12,9 km/h (3 Bft) 93,75 %
30.06.2020 06:04 13,7 C 12,8 C 12,8 C 80 % 1010,7 hPa 0,0 l/m 0 min 0 min 21 W/m 12,9 km/h (3 Bft) 95,74 %
30.06.2020 06:08 13,7 C 12,8 C 12,8 C 80 % 1010,7 hPa 0,0 l/m 0 min 0 min 21 W/m 19,3 km/h (3 Bft) 92,55 %
30.06.2020 06:10 13,7 C 12,8 C 12,8 C 80 % 1010,8 hPa 0,0 l/m 0 min 0 min 21 W/m 19,3 km/h (3 Bft) 93,62 %
30.06.2020 06:12 13,7 C 12,8 C 12,8 C 80 % 1010,7 hPa 0,0 l/m 0 min 0 min 19 W/m 12,9 km/h (3 Bft) 97,83 %
30.06.2020 06:14 13,7 C 12,8 C 12,8 C 80 % 1010,7 hPa 0,0 l/m 0 min 0 min 19 W/m 16,1 km/h (3 Bft) 95,74 %
30.06.2020 06:16 13,8 C 12,8 C 12,8 C 80 % 1010,7 hPa 0,0 l/m 0 min 0 min 17 W/m 12,9 km/h (3 Bft) 93,62 %
30.06.2020 06:18 13,7 C 12,8 C 12,8 C 80 % 1010,6 hPa 0,0 l/m 0 min 0 min 16 W/m 16,1 km/h (3 Bft) 95,74 %
30.06.2020 06:20 13,7 C 12,8 C 12,8 C 80 % 1010,7 hPa 0,0 l/m 0 min 0 min 15 W/m 16,1 km/h (3 Bft) 95,74 %
30.06.2020 06:22 13,7 C 12,8 C 12,8 C 80 % 1010,7 hPa 0,0 l/m 0 min 0 min 14 W/m 16,1 km/h (3 Bft) 95,65 %
30.06.2020 06:24 13,7 C 12,8 C 12,8 C 80 % 1010,7 hPa 0,0 l/m 0 min 0 min 16 W/m 6,4 km/h (2 Bft) 93,62 %
30.06.2020 06:26 13,7 C 12,8 C 12,8 C 80 % 1010,7 hPa 0,0 l/m 0 min 0 min 16 W/m 12,9 km/h (3 Bft) 95,74 %
30.06.2020 06:28 13,7 C 12,8 C 12,8 C 80 % 1010,7 hPa 0,0 l/m 0 min 0 min 16 W/m 9,7 km/h (2 Bft) 95,74 %
30.06.2020 06:30 13,7 C 12,8 C 12,8 C 80 % 1010,8 hPa 0,0 l/m 0 min 0 min 16 W/m 6,4 km/h (2 Bft) 93,62 %
30.06.2020 06:32 13,7 C 12,8 C 12,8 C 80 % 1010,7 hPa 0,0 l/m 0 min 0 min 15 W/m 9,7 km/h (2 Bft) 91,67 %
30.06.2020 06:34 13,7 C 12,8 C 12,8 C 80 % 1010,6 hPa 0,0 l/m 0 min 0 min 16 W/m 29,0 km/h (5 Bft) 94,83 %
30.06.2020 06:36 13,7 C 12,8 C 12,8 C 80 % 1010,8 hPa 0,0 l/m 0 min 0 min 18 W/m 22,5 km/h (4 Bft) 91,49 %
30.06.2020 06:38 13,7 C 12,8 C 12,8 C 80 % 1010,8 hPa 0,0 l/m 0 min 0 min 19 W/m 19,3 km/h (3 Bft) 93,62 %
30.06.2020 06:40 13,7 C 12,8 C 12,8 C 80 % 1010,8 hPa 0,0 l/m 0 min 0 min 20 W/m 6,4 km/h (2 Bft) 95,74 %
30.06.2020 06:42 13,7 C 12,8 C 12,8 C 80 % 1010,8 hPa 0,0 l/m 0 min 0 min 21 W/m 16,1 km/h (3 Bft) 95,74 %
30.06.2020 06:44 13,7 C 12,8 C 12,8 C 81 % 1010,7 hPa 0,0 l/m 0 min 0 min 23 W/m 19,3 km/h (3 Bft) 95,65 %
30.06.2020 06:46 13,7 C 13,3 C 12,8 C 81 % 1010,7 hPa 0,0 l/m 0 min 0 min 24 W/m 19,3 km/h (3 Bft) 95,74 %
30.06.2020 06:48 13,7 C 13,3 C 12,8 C 81 % 1010,7 hPa 0,0 l/m 0 min 0 min 27 W/m 12,9 km/h (3 Bft) 95,74 %
30.06.2020 06:50 13,7 C 13,3 C 12,8 C 81 % 1010,7 hPa 0,0 l/m 0 min 0 min 30 W/m 19,3 km/h (3 Bft) 95,74 %
30.06.2020 06:52 13,8 C 13,3 C 12,8 C 81 % 1010,7 hPa 0,0 l/m 0 min 0 min 33 W/m 19,3 km/h (3 Bft) 95,74 %
30.06.2020 06:54 13,8 C 13,3 C 12,8 C 81 % 1010,8 hPa 0,0 l/m 0 min 0 min 38 W/m 19,3 km/h (3 Bft) 93,62 %
30.06.2020 06:56 13,8 C 13,3 C 12,8 C 81 % 1010,7 hPa 0,0 l/m 0 min 0 min 42 W/m 25,7 km/h (4 Bft) 97,83 %
30.06.2020 06:58 13,8 C 13,9 C 13,3 C 81 % 1010,6 hPa 0,0 l/m 0 min 0 min 46 W/m 25,7 km/h (4 Bft) 97,87 %
30.06.2020 07:00 13,9 C 13,9 C 13,3 C 81 % 1010,7 hPa 0,0 l/m 0 min 0 min 46 W/m 19,3 km/h (3 Bft) 97,83 %
30.06.2020 07:02 13,9 C 13,9 C 13,3 C 80 % 1010,8 hPa 0,0 l/m 0 min 0 min 44 W/m 35,4 km/h (5 Bft) 95,74 %
30.06.2020 07:04 14,0 C 13,9 C 13,3 C 80 % 1010,8 hPa 0,0 l/m 0 min 0 min 43 W/m 16,1 km/h (3 Bft) 95,74 %
30.06.2020 07:06 14,0 C 13,9 C 13,3 C 80 % 1010,8 hPa 0,0 l/m 0 min 0 min 46 W/m 12,9 km/h (3 Bft) 85,11 %
30.06.2020 07:08 14,1 C 13,9 C 13,3 C 80 % 1010,8 hPa 0,0 l/m 0 min 0 min 45 W/m 16,1 km/h (3 Bft) 95,74 %
30.06.2020 07:10 14,1 C 13,9 C 13,3 C 80 % 1010,8 hPa 0,0 l/m 0 min 0 min 48 W/m 19,3 km/h (3 Bft) 95,65 %
30.06.2020 07:12 14,2 C 13,9 C 13,3 C 80 % 1010,7 hPa 0,0 l/m 0 min 0 min 55 W/m 22,5 km/h (4 Bft) 89,36 %
30.06.2020 07:14 14,2 C 13,9 C 13,3 C 80 % 1010,7 hPa 0,0 l/m 0 min 0 min 54 W/m 9,7 km/h (2 Bft) 87,23 %
30.06.2020 07:16 14,3 C 13,9 C 13,3 C 80 % 1010,8 hPa 0,0 l/m 0 min 0 min 56 W/m 22,5 km/h (4 Bft) 93,62 %
30.06.2020 07:18 14,3 C 13,9 C 13,3 C 80 % 1010,7 hPa 0,0 l/m 0 min 0 min 59 W/m 19,3 km/h (3 Bft) 100,00 %
30.06.2020 07:20 14,3 C 13,9 C 13,3 C 80 % 1010,6 hPa 0,0 l/m 0 min 0 min 57 W/m 12,9 km/h (3 Bft) 97,87 %
30.06.2020 07:22 14,3 C 13,9 C 13,3 C 79 % 1010,6 hPa 0,0 l/m 0 min 0 min 51 W/m 25,7 km/h (4 Bft) 100,00 %
30.06.2020 07:24 14,3 C 13,9 C 13,3 C 79 % 1010,8 hPa 0,0 l/m 0 min 0 min 46 W/m 16,1 km/h (3 Bft) 93,62 %
30.06.2020 07:26 14,3 C 13,9 C 13,3 C 79 % 1010,6 hPa 0,0 l/m 0 min 0 min 38 W/m 12,9 km/h (3 Bft) 91,49 %
30.06.2020 07:28 14,3 C 13,9 C 13,3 C 79 % 1010,6 hPa 0,0 l/m 0 min 0 min 44 W/m 12,9 km/h (3 Bft) 97,87 %
30.06.2020 07:30 14,4 C 14,4 C 13,9 C 79 % 1010,6 hPa 0,0 l/m 0 min 0 min 61 W/m 12,9 km/h (3 Bft) 93,62 %
30.06.2020 07:32 14,4 C 14,4 C 13,9 C 80 % 1010,6 hPa 0,0 l/m 0 min 0 min 89 W/m 19,3 km/h (3 Bft) 95,65 %
30.06.2020 07:34 14,5 C 15,0 C 13,9 C 79 % 1010,6 hPa 0,0 l/m 0 min 0 min 99 W/m 16,1 km/h (3 Bft) 95,74 %
30.06.2020 07:36 14,6 C 15,0 C 13,9 C 79 % 1010,6 hPa 0,0 l/m 0 min 0 min 79 W/m 12,9 km/h (3 Bft) 100,00 %
30.06.2020 07:38 14,6 C 15,0 C 13,9 C 79 % 1010,6 hPa 0,0 l/m 0 min 0 min 74 W/m 19,3 km/h (3 Bft) 97,87 %
30.06.2020 07:40 14,6 C 15,0 C 13,9 C 79 % 1010,5 hPa 0,0 l/m 0 min 0 min 81 W/m 38,6 km/h (5 Bft) 100,00 %
30.06.2020 07:42 14,7 C 15,0 C 13,9 C 79 % 1010,5 hPa 0,0 l/m 0 min 0 min 72 W/m 16,1 km/h (3 Bft) 100,00 %
30.06.2020 07:44 14,7 C 14,4 C 13,9 C 79 % 1010,6 hPa 0,0 l/m 0 min 0 min 64 W/m 22,5 km/h (4 Bft) 100,00 %
30.06.2020 07:46 14,8 C 14,4 C 13,9 C 79 % 1010,6 hPa 0,0 l/m 0 min 0 min 62 W/m 12,9 km/h (3 Bft) 100,00 %
30.06.2020 07:48 14,8 C 14,4 C 13,9 C 78 % 1010,6 hPa 0,0 l/m 0 min 0 min 52 W/m 19,3 km/h (3 Bft) 97,87 %
30.06.2020 07:50 14,9 C 14,4 C 13,9 C 78 % 1010,6 hPa 0,0 l/m 0 min 0 min 53 W/m 29,0 km/h (5 Bft) 100,00 %
30.06.2020 07:52 14,9 C 14,4 C 13,9 C 78 % 1010,6 hPa 0,0 l/m 0 min 0 min 47 W/m 22,5 km/h (4 Bft) 100,00 %
30.06.2020 07:54 14,9 C 14,4 C 13,9 C 78 % 1010,7 hPa 0,0 l/m 0 min 0 min 51 W/m 19,3 km/h (3 Bft) 100,00 %
30.06.2020 07:56 15,0 C 15,0 C 13,9 C 78 % 1010,7 hPa 0,0 l/m 0 min 0 min 61 W/m 22,5 km/h (4 Bft) 95,65 %
30.06.2020 07:58 15,0 C 15,0 C 14,4 C 78 % 1010,7 hPa 0,0 l/m 0 min 0 min 83 W/m 12,9 km/h (3 Bft) 95,74 %
30.06.2020 08:00 15,1 C 16,7 C 14,4 C 78 % 1010,7 hPa 0,0 l/m 0 min 0 min 112 W/m 6,4 km/h (2 Bft) 100,00 %
30.06.2020 08:02 15,1 C 17,2 C 14,4 C 78 % 1010,7 hPa 0,0 l/m 0 min 0 min 154 W/m 16,1 km/h (3 Bft) 97,92 %
30.06.2020 08:04 15,2 C 17,8 C 15,0 C 78 % 1010,9 hPa 0,0 l/m 2 min 0 min 213 W/m 19,3 km/h (3 Bft) 100,00 %
30.06.2020 08:06 15,3 C 17,2 C 15,0 C 78 % 1010,6 hPa 0,0 l/m 2 min 0 min 244 W/m 25,7 km/h (4 Bft) 100,00 %
30.06.2020 08:08 15,4 C 17,2 C 15,6 C 78 % 1010,7 hPa 0,0 l/m 2 min 0 min 199 W/m 19,3 km/h (3 Bft) 100,00 %
30.06.2020 08:10 15,6 C 16,7 C 15,0 C 77 % 1010,7 hPa 0,0 l/m 0 min 0 min 134 W/m 19,3 km/h (3 Bft) 97,87 %
30.06.2020 08:12 15,6 C 16,1 C 15,0 C 77 % 1010,7 hPa 0,0 l/m 0 min 0 min 133 W/m 6,4 km/h (2 Bft) 93,62 %
30.06.2020 08:14 15,7 C 16,1 C 15,0 C 77 % 1010,6 hPa 0,0 l/m 0 min 0 min 152 W/m 25,7 km/h (4 Bft) 97,87 %
30.06.2020 08:16 15,8 C 16,1 C 15,0 C 77 % 1010,7 hPa 0,0 l/m 0 min 0 min 188 W/m 19,3 km/h (3 Bft) 91,49 %
30.06.2020 08:18 15,8 C 16,7 C 15,0 C 77 % 1010,8 hPa 0,0 l/m 0 min 0 min 185 W/m 22,5 km/h (4 Bft) 100,00 %
30.06.2020 08:20 15,8 C 16,7 C 15,6 C 77 % 1010,6 hPa 0,0 l/m 0 min 0 min 180 W/m 16,1 km/h (3 Bft) 97,87 %
30.06.2020 08:22 15,9 C 16,7 C 15,6 C 77 % 1010,7 hPa 0,0 l/m 0 min 0 min 212 W/m 12,9 km/h (3 Bft) 95,74 %
30.06.2020 08:24 15,9 C 16,7 C 15,6 C 76 % 1010,8 hPa 0,0 l/m 2 min 0 min 227 W/m 19,3 km/h (3 Bft) 97,87 %
30.06.2020 08:26 16,0 C 16,7 C 15,6 C 76 % 1010,9 hPa 0,0 l/m 2 min 0 min 221 W/m 22,5 km/h (4 Bft) 97,87 %
30.06.2020 08:28 16,1 C 16,7 C 15,6 C 76 % 1010,8 hPa 0,0 l/m 0 min 0 min 215 W/m 12,9 km/h (3 Bft) 93,62 %
30.06.2020 08:30 16,1 C 16,7 C 15,6 C 75 % 1010,8 hPa 0,0 l/m 0 min 0 min 203 W/m 22,5 km/h (4 Bft) 95,65 %
30.06.2020 08:32 16,1 C 16,7 C 15,6 C 75 % 1010,7 hPa 0,0 l/m 0 min 0 min 181 W/m 12,9 km/h (3 Bft) 100,00 %
30.06.2020 08:34 16,1 C 16,1 C 15,6 C 75 % 1010,7 hPa 0,0 l/m 0 min 0 min 175 W/m 16,1 km/h (3 Bft) 100,00 %
30.06.2020 08:36 16,2 C 16,7 C 15,6 C 75 % 1010,7 hPa 0,0 l/m 0 min 0 min 170 W/m 6,4 km/h (2 Bft) 97,87 %
30.06.2020 08:38 16,2 C 16,7 C 15,6 C 74 % 1010,7 hPa 0,0 l/m 0 min 0 min 177 W/m 19,3 km/h (3 Bft) 97,87 %
30.06.2020 08:40 16,2 C 16,7 C 15,6 C 74 % 1010,6 hPa 0,0 l/m 0 min 0 min 181 W/m 16,1 km/h (3 Bft) 100,00 %
30.06.2020 08:42 16,2 C 16,7 C 15,6 C 74 % 1010,7 hPa 0,0 l/m 0 min 0 min 189 W/m 25,7 km/h (4 Bft) 100,00 %
30.06.2020 08:44 16,2 C 17,8 C 16,7 C 74 % 1010,8 hPa 0,0 l/m 0 min 0 min 202 W/m 16,1 km/h (3 Bft) 97,87 %
30.06.2020 08:46 16,3 C 17,8 C 16,7 C 74 % 1010,8 hPa 0,0 l/m 0 min 0 min 221 W/m 16,1 km/h (3 Bft) 97,87 %
30.06.2020 08:48 16,3 C 18,3 C 17,2 C 74 % 1010,6 hPa 0,0 l/m 2 min 0 min 250 W/m 12,9 km/h (3 Bft) 97,87 %
30.06.2020 08:50 16,4 C 19,4 C 18,3 C 74 % 1010,7 hPa 0,0 l/m 2 min 0 min 269 W/m 9,7 km/h (2 Bft) 97,87 %
30.06.2020 08:52 16,6 C 19,4 C 18,3 C 75 % 1010,8 hPa 0,0 l/m 2 min 0 min 260 W/m 25,7 km/h (4 Bft) 97,83 %
30.06.2020 08:54 16,7 C 18,3 C 17,8 C 73 % 1010,8 hPa 0,0 l/m 0 min 0 min 237 W/m 25,7 km/h (4 Bft) 95,74 %
30.06.2020 08:56 16,7 C 17,8 C 17,2 C 73 % 1010,8 hPa 0,0 l/m 0 min 0 min 228 W/m 16,1 km/h (3 Bft) 95,74 %
30.06.2020 08:58 16,8 C 17,8 C 17,2 C 73 % 1010,7 hPa 0,0 l/m 0 min 0 min 242 W/m 16,1 km/h (3 Bft) 97,87 %
30.06.2020 09:00 16,8 C 17,8 C 17,2 C 73 % 1010,8 hPa 0,0 l/m 0 min 0 min 256 W/m 19,3 km/h (3 Bft) 97,87 %
30.06.2020 09:02 16,8 C 17,8 C 16,7 C 73 % 1010,8 hPa 0,0 l/m 0 min 0 min 257 W/m 29,0 km/h (5 Bft) 97,87 %
30.06.2020 09:04 16,9 C 18,3 C 16,7 C 72 % 1010,8 hPa 0,0 l/m 2 min 0 min 269 W/m 16,1 km/h (3 Bft) 97,83 %
30.06.2020 09:06 16,9 C 18,3 C 16,7 C 73 % 1010,8 hPa 0,0 l/m 0 min 0 min 236 W/m 16,1 km/h (3 Bft) 92,86 %
30.06.2020 09:08 16,9 C 17,8 C 16,7 C 72 % 1010,8 hPa 0,0 l/m 0 min 0 min 216 W/m 19,3 km/h (3 Bft) 93,62 %
30.06.2020 09:10 17,0 C 17,8 C 16,7 C 73 % 1010,8 hPa 0,0 l/m 0 min 0 min 217 W/m 22,5 km/h (4 Bft) 100,00 %
30.06.2020 09:12 17,0 C 17,8 C 16,7 C 72 % 1010,8 hPa 0,0 l/m 0 min 0 min 226 W/m 16,1 km/h (3 Bft) 95,74 %
30.06.2020 09:14 17,1 C 18,3 C 16,7 C 72 % 1010,8 hPa 0,0 l/m 0 min 0 min 206 W/m 9,7 km/h (2 Bft) 91,49 %
30.06.2020 09:16 17,1 C 18,3 C 17,2 C 72 % 1010,8 hPa 0,0 l/m 0 min 0 min 238 W/m 22,5 km/h (4 Bft) 93,62 %
30.06.2020 09:18 17,1 C 18,9 C 17,8 C 72 % 1010,8 hPa 0,0 l/m 2 min 0 min 298 W/m 19,3 km/h (3 Bft) 91,30 %
30.06.2020 09:20 17,2 C 20,0 C 18,9 C 71 % 1010,8 hPa 0,0 l/m 2 min 0 min 346 W/m 22,5 km/h (4 Bft) 93,62 %
30.06.2020 09:22 17,2 C 20,0 C 19,4 C 71 % 1010,7 hPa 0,0 l/m 2 min 0 min 334 W/m 19,3 km/h (3 Bft) 93,62 %
30.06.2020 09:24 17,3 C 21,7 C 20,6 C 71 % 1010,7 hPa 0,0 l/m 2 min 0 min 463 W/m 25,7 km/h (4 Bft) 93,62 %
30.06.2020 09:26 17,5 C 21,7 C 21,1 C 71 % 1010,7 hPa 0,0 l/m 2 min 0 min 655 W/m 16,1 km/h (3 Bft) 93,62 %
30.06.2020 09:28 17,7 C 21,7 C 21,1 C 71 % 1010,8 hPa 0,0 l/m 2 min 0 min 499 W/m 35,4 km/h (5 Bft) 91,49 %
30.06.2020 09:30 17,8 C 21,1 C 20,6 C 70 % 1010,7 hPa 0,0 l/m 2 min 0 min 459 W/m 16,1 km/h (3 Bft) 93,48 %
30.06.2020 09:32 17,9 C 19,4 C 19,4 C 69 % 1010,8 hPa 0,0 l/m 2 min 0 min 385 W/m 19,3 km/h (3 Bft) 91,67 %
30.06.2020 09:34 18,0 C 18,9 C 18,3 C 68 % 1010,8 hPa 0,0 l/m 0 min 0 min 260 W/m 25,7 km/h (4 Bft) 93,62 %
30.06.2020 09:36 17,9 C 18,3 C 18,3 C 68 % 1010,7 hPa 0,0 l/m 0 min 0 min 282 W/m 22,5 km/h (4 Bft) 93,62 %
30.06.2020 09:38 18,0 C 20,0 C 18,9 C 69 % 1010,7 hPa 0,0 l/m 2 min 0 min 320 W/m 12,9 km/h (3 Bft) 91,49 %
30.06.2020 09:40 18,1 C 21,7 C 20,6 C 70 % 1010,7 hPa 0,0 l/m 2 min 0 min 320 W/m 22,5 km/h (4 Bft) 93,62 %
30.06.2020 09:42 18,1 C 21,1 C 20,0 C 69 % 1010,7 hPa 0,0 l/m 2 min 0 min 320 W/m 19,3 km/h (3 Bft) 93,48 %
30.06.2020 09:44 18,2 C 21,7 C 21,1 C 68 % 1010,8 hPa 0,0 l/m 2 min 0 min 642 W/m 29,0 km/h (5 Bft) 93,62 %
30.06.2020 09:46 18,3 C 22,2 C 21,7 C 69 % 1010,8 hPa 0,0 l/m 2 min 0 min 682 W/m 19,3 km/h (3 Bft) 93,62 %
30.06.2020 09:48 18,4 C 21,7 C 22,2 C 68 % 1010,8 hPa 0,0 l/m 2 min 0 min 667 W/m 22,5 km/h (4 Bft) 93,62 %
30.06.2020 09:50 18,4 C 22,2 C 22,2 C 69 % 1010,7 hPa 0,0 l/m 2 min 0 min 632 W/m 19,3 km/h (3 Bft) 95,74 %
30.06.2020 09:52 18,4 C 21,7 C 22,2 C 68 % 1010,6 hPa 0,0 l/m 2 min 0 min 561 W/m 19,3 km/h (3 Bft) 95,65 %
30.06.2020 09:54 18,5 C 22,8 C 22,8 C 69 % 1010,6 hPa 0,0 l/m 2 min 0 min 668 W/m 22,5 km/h (4 Bft) 95,74 %
30.06.2020 09:56 18,6 C 22,2 C 22,8 C 69 % 1010,6 hPa 0,0 l/m 2 min 0 min 684 W/m 16,1 km/h (3 Bft) 95,74 %
30.06.2020 09:58 18,7 C 22,2 C 22,8 C 68 % 1010,8 hPa 0,0 l/m 2 min 0 min 576 W/m 16,1 km/h (3 Bft) 97,87 %
30.06.2020 10:00 18,8 C 22,8 C 23,3 C 69 % 1010,6 hPa 0,0 l/m 2 min 0 min 761 W/m 9,7 km/h (2 Bft) 97,87 %
30.06.2020 10:02 18,9 C 22,2 C 22,8 C 68 % 1010,7 hPa 0,0 l/m 2 min 0 min 765 W/m 19,3 km/h (3 Bft) 97,92 %
30.06.2020 10:04 18,9 C 22,2 C 22,2 C 68 % 1010,6 hPa 0,0 l/m 2 min 0 min 765 W/m 12,9 km/h (3 Bft) 100,00 %
30.06.2020 10:06 18,9 C 22,8 C 23,3 C 68 % 1010,7 hPa 0,0 l/m 2 min 0 min 765 W/m 22,5 km/h (4 Bft) 100,00 %
30.06.2020 10:08 18,9 C 21,1 C 22,2 C 67 % 1010,5 hPa 0,0 l/m 2 min 0 min 633 W/m 19,3 km/h (3 Bft) 97,92 %
30.06.2020 10:10 18,9 C 22,8 C 22,8 C 67 % 1010,5 hPa 0,0 l/m 2 min 0 min 563 W/m 22,5 km/h (4 Bft) 100,00 %
30.06.2020 10:12 19,1 C 22,2 C 22,8 C 68 % 1010,5 hPa 0,0 l/m 2 min 0 min 735 W/m 22,5 km/h (4 Bft) 100,00 %
30.06.2020 10:14 19,1 C 22,2 C 22,8 C 67 % 1010,5 hPa 0,0 l/m 2 min 0 min 674 W/m 25,7 km/h (4 Bft) 100,00 %
30.06.2020 10:16 19,2 C 22,2 C 22,2 C 67 % 1010,5 hPa 0,0 l/m 0 min 0 min 225 W/m 22,5 km/h (4 Bft) 100,00 %
30.06.2020 10:18 19,2 C 21,1 C 21,7 C 66 % 1010,7 hPa 0,0 l/m 0 min 0 min 219 W/m 22,5 km/h (4 Bft) 97,87 %
30.06.2020 10:20 19,2 C 22,2 C 21,7 C 67 % 1010,5 hPa 0,0 l/m 0 min 0 min 218 W/m 19,3 km/h (3 Bft) 100,00 %
30.06.2020 10:22 19,2 C 20,0 C 20,6 C 66 % 1010,6 hPa 0,0 l/m 0 min 0 min 222 W/m 22,5 km/h (4 Bft) 97,87 %
30.06.2020 10:24 19,1 C 19,4 C 20,0 C 66 % 1010,5 hPa 0,0 l/m 0 min 0 min 263 W/m 29,0 km/h (5 Bft) 97,87 %
30.06.2020 10:26 18,9 C 20,0 C 20,0 C 66 % 1010,4 hPa 0,0 l/m 0 min 0 min 278 W/m 25,7 km/h (4 Bft) 100,00 %
30.06.2020 10:28 19,0 C 21,7 C 21,1 C 67 % 1010,4 hPa 0,0 l/m 2 min 0 min 705 W/m 19,3 km/h (3 Bft) 97,87 %
30.06.2020 10:30 19,1 C 21,7 C 21,1 C 67 % 1010,3 hPa 0,0 l/m 2 min 0 min 891 W/m 35,4 km/h (5 Bft) 100,00 %
30.06.2020 10:32 19,1 C 20,6 C 20,6 C 66 % 1010,4 hPa 0,0 l/m 2 min 0 min 819 W/m 12,9 km/h (3 Bft) 100,00 %
30.06.2020 10:34 19,1 C 20,0 C 20,0 C 66 % 1010,5 hPa 0,0 l/m 0 min 0 min 236 W/m 19,3 km/h (3 Bft) 100,00 %
30.06.2020 10:36 19,0 C 20,0 C 19,4 C 66 % 1010,4 hPa 0,0 l/m 0 min 0 min 260 W/m 12,9 km/h (3 Bft) 100,00 %
30.06.2020 10:38 19,0 C 21,7 C 21,1 C 66 % 1010,4 hPa 0,0 l/m 2 min 0 min 417 W/m 12,9 km/h (3 Bft) 97,83 %
30.06.2020 10:40 19,1 C 20,6 C 20,0 C 65 % 1010,6 hPa 0,0 l/m 2 min 0 min 774 W/m 25,7 km/h (4 Bft) 100,00 %
30.06.2020 10:42 19,0 C 21,1 C 20,0 C 65 % 1010,6 hPa 0,0 l/m 0 min 0 min 239 W/m 29,0 km/h (5 Bft) 100,00 %
30.06.2020 10:44 19,1 C 21,1 C 20,6 C 66 % 1010,4 hPa 0,0 l/m 2 min 0 min 976 W/m 22,5 km/h (4 Bft) 100,00 %
30.06.2020 10:46 19,1 C 20,6 C 20,0 C 65 % 1010,5 hPa 0,0 l/m 2 min 0 min 773 W/m 29,0 km/h (5 Bft) 100,00 %
30.06.2020 10:48 19,1 C 21,1 C 20,6 C 65 % 1010,4 hPa 0,0 l/m 0 min 0 min 227 W/m 25,7 km/h (4 Bft) 97,83 %
30.06.2020 10:50 19,2 C 22,2 C 21,7 C 65 % 1010,3 hPa 0,0 l/m 2 min 0 min 572 W/m 25,7 km/h (4 Bft) 100,00 %
30.06.2020 10:52 19,3 C 23,3 C 22,8 C 65 % 1010,3 hPa 0,0 l/m 2 min 0 min 861 W/m 16,1 km/h (3 Bft) 97,87 %
30.06.2020 10:54 19,5 C 23,9 C 23,3 C 65 % 1010,4 hPa 0,0 l/m 2 min 0 min 868 W/m 25,7 km/h (4 Bft) 100,00 %
30.06.2020 10:56 19,6 C 23,9 C 23,9 C 64 % 1010,5 hPa 0,0 l/m 2 min 0 min 888 W/m 25,7 km/h (4 Bft) 100,00 %
30.06.2020 10:58 19,8 C 23,3 C 22,8 C 64 % 1010,5 hPa 0,0 l/m 2 min 0 min 888 W/m 19,3 km/h (3 Bft) 97,87 %
30.06.2020 11:00 19,8 C 22,2 C 22,8 C 64 % 1010,4 hPa 0,0 l/m 2 min 0 min 765 W/m 16,1 km/h (3 Bft) 100,00 %
30.06.2020 11:02 19,9 C 21,7 C 21,7 C 63 % 1010,4 hPa 0,0 l/m 0 min 0 min 295 W/m 19,3 km/h (3 Bft) 100,00 %
30.06.2020 11:04 19,8 C 22,2 C 21,7 C 63 % 1010,3 hPa 0,0 l/m 0 min 0 min 318 W/m 25,7 km/h (4 Bft) 100,00 %
30.06.2020 11:06 19,9 C 22,8 C 22,2 C 64 % 1010,4 hPa 0,0 l/m 0 min 0 min 357 W/m 16,1 km/h (3 Bft) 100,00 %
30.06.2020 11:08 20,1 C 22,8 C 22,2 C 63 % 1010,4 hPa 0,0 l/m 0 min 0 min 311 W/m 22,5 km/h (4 Bft) 100,00 %
30.06.2020 11:10 20,1 C 23,3 C 22,8 C 62 % 1010,4 hPa 0,0 l/m 2 min 0 min 426 W/m 29,0 km/h (5 Bft) 100,00 %
30.06.2020 11:12 20,0 C 21,7 C 21,7 C 62 % 1010,3 hPa 0,0 l/m 0 min 0 min 370 W/m 19,3 km/h (3 Bft) 100,00 %
30.06.2020 11:14 20,0 C 20,6 C 21,1 C 62 % 1010,3 hPa 0,0 l/m 0 min 0 min 222 W/m 9,7 km/h (2 Bft) 100,00 %
30.06.2020 11:16 19,9 C 20,6 C 20,0 C 62 % 1010,3 hPa 0,0 l/m 0 min 0 min 251 W/m 16,1 km/h (3 Bft) 100,00 %
30.06.2020 11:18 19,9 C 22,2 C 21,1 C 62 % 1010,3 hPa 0,0 l/m 0 min 0 min 309 W/m 12,9 km/h (3 Bft) 100,00 %
30.06.2020 11:20 19,9 C 22,2 C 21,7 C 63 % 1010,3 hPa 0,0 l/m 0 min 0 min 311 W/m 22,5 km/h (4 Bft) 100,00 %
30.06.2020 11:22 19,9 C 20,6 C 20,6 C 62 % 1010,5 hPa 0,0 l/m 0 min 0 min 274 W/m 19,3 km/h (3 Bft) 100,00 %
30.06.2020 11:24 19,8 C 20,0 C 20,0 C 62 % 1010,4 hPa 0,0 l/m 0 min 0 min 232 W/m 32,2 km/h (5 Bft) 100,00 %
30.06.2020 11:26 19,7 C 20,0 C 19,4 C 63 % 1010,3 hPa 0,0 l/m 0 min 0 min 273 W/m 19,3 km/h (3 Bft) 100,00 %
30.06.2020 11:28 19,7 C 21,1 C 20,0 C 64 % 1010,2 hPa 0,0 l/m 0 min 0 min 312 W/m 25,7 km/h (4 Bft) 100,00 %
30.06.2020 11:30 19,6 C 20,6 C 20,0 C 62 % 1010,3 hPa 0,0 l/m 0 min 0 min 311 W/m 29,0 km/h (5 Bft) 100,00 %
30.06.2020 11:32 19,6 C 20,0 C 19,4 C 62 % 1010,4 hPa 0,0 l/m 0 min 0 min 316 W/m 38,6 km/h (5 Bft) 100,00 %
30.06.2020 11:34 19,6 C 22,2 C 20,6 C 62 % 1010,3 hPa 0,0 l/m 2 min 0 min 561 W/m 19,3 km/h (3 Bft) 97,83 %
30.06.2020 11:36 19,7 C 23,9 C 21,7 C 63 % 1010,3 hPa 0,0 l/m 2 min 0 min 833 W/m 12,9 km/h (3 Bft) 97,87 %
30.06.2020 11:38 19,8 C 22,8 C 21,1 C 63 % 1010,4 hPa 0,0 l/m 2 min 0 min 874 W/m 19,3 km/h (3 Bft) 97,87 %
30.06.2020 11:40 19,9 C 22,2 C 21,1 C 63 % 1010,3 hPa 0,0 l/m 0 min 0 min 345 W/m 12,9 km/h (3 Bft) 97,87 %
30.06.2020 11:42 19,9 C 21,1 C 20,6 C 63 % 1010,3 hPa 0,0 l/m 0 min 0 min 267 W/m 9,7 km/h (2 Bft) 97,87 %
30.06.2020 11:44 20,0 C 23,3 C 21,1 C 63 % 1010,4 hPa 0,0 l/m 0 min 0 min 271 W/m 22,5 km/h (4 Bft) 97,87 %
30.06.2020 11:46 20,2 C 23,9 C 21,7 C 62 % 1010,3 hPa 0,0 l/m 2 min 0 min 546 W/m 16,1 km/h (3 Bft) 93,62 %
30.06.2020 11:48 20,3 C 23,9 C 21,7 C 62 % 1010,3 hPa 0,0 l/m 2 min 0 min 1005 W/m 22,5 km/h (4 Bft) 97,83 %
30.06.2020 11:50 20,3 C 21,1 C 21,1 C 61 % 1010,3 hPa 0,0 l/m 2 min 0 min 468 W/m 35,4 km/h (5 Bft) 97,87 %
30.06.2020 11:52 20,3 C 22,8 C 21,1 C 61 % 1010,4 hPa 0,0 l/m 0 min 0 min 209 W/m 38,6 km/h (5 Bft) 97,87 %
30.06.2020 11:54 20,4 C 21,7 C 21,1 C 60 % 1010,2 hPa 0,0 l/m 0 min 0 min 212 W/m 22,5 km/h (4 Bft) 97,87 %
30.06.2020 11:56 20,4 C 22,8 C 21,1 C 62 % 1010,3 hPa 0,0 l/m 0 min 0 min 298 W/m 9,7 km/h (2 Bft) 97,87 %
30.06.2020 11:58 20,5 C 24,4 C 21,7 C 61 % 1010,3 hPa 0,0 l/m 2 min 0 min 975 W/m 22,5 km/h (4 Bft) 97,83 %
30.06.2020 12:00 20,6 C 24,4 C 22,2 C 62 % 1010,3 hPa 0,0 l/m 2 min 0 min 1100 W/m 16,1 km/h (3 Bft) 93,62 %
30.06.2020 12:02 20,8 C 26,1 C 23,3 C 62 % 1010,3 hPa 0,0 l/m 2 min 0 min 1100 W/m 9,7 km/h (2 Bft) 95,83 %
30.06.2020 12:04 21,0 C 26,1 C 23,3 C 62 % 1010,2 hPa 0,0 l/m 2 min 0 min 1130 W/m 19,3 km/h (3 Bft) 97,87 %
30.06.2020 12:08 21,1 C 22,8 C 21,7 C 59 % 1010,3 hPa 0,0 l/m 4 min 0 min 577 W/m 25,7 km/h (4 Bft) 97,65 %
30.06.2020 12:10 21,1 C 21,7 C 21,1 C 59 % 1010,3 hPa 0,0 l/m 0 min 0 min 353 W/m 19,3 km/h (3 Bft) 97,78 %
30.06.2020 12:12 21,1 C 21,7 C 21,1 C 59 % 1010,3 hPa 0,0 l/m 0 min 0 min 312 W/m 25,7 km/h (4 Bft) 97,83 %
30.06.2020 12:14 21,1 C 22,2 C 21,1 C 58 % 1010,4 hPa 0,0 l/m 0 min 0 min 304 W/m 22,5 km/h (4 Bft) 93,62 %
30.06.2020 12:16 21,1 C 22,8 C 21,7 C 60 % 1010,3 hPa 0,0 l/m 0 min 0 min 316 W/m 16,1 km/h (3 Bft) 92,00 %
30.06.2020 12:18 21,1 C 21,7 C 21,7 C 58 % 1010,3 hPa 0,0 l/m 0 min 0 min 324 W/m 25,7 km/h (4 Bft) 97,87 %
30.06.2020 12:20 21,1 C 21,1 C 21,1 C 57 % 1010,4 hPa 0,0 l/m 0 min 0 min 312 W/m 29,0 km/h (5 Bft) 95,74 %
30.06.2020 12:22 21,1 C 21,1 C 21,1 C 58 % 1010,3 hPa 0,0 l/m 0 min 0 min 264 W/m 22,5 km/h (4 Bft) 93,48 %
30.06.2020 12:24 20,9 C 20,6 C 21,1 C 58 % 1010,3 hPa 0,0 l/m 0 min 0 min 245 W/m 16,1 km/h (3 Bft) 97,87 %
30.06.2020 12:26 20,9 C 21,7 C 21,1 C 59 % 1010,3 hPa 0,0 l/m 0 min 0 min 261 W/m 12,9 km/h (3 Bft) 95,74 %
30.06.2020 12:28 20,9 C 24,4 C 22,2 C 60 % 1010,3 hPa 0,0 l/m 0 min 0 min 311 W/m 16,1 km/h (3 Bft) 91,49 %
30.06.2020 12:30 21,1 C 24,4 C 22,8 C 61 % 1010,5 hPa 0,0 l/m 2 min 0 min 844 W/m 12,9 km/h (3 Bft) 95,74 %
30.06.2020 12:32 21,2 C 22,2 C 22,2 C 59 % 1010,5 hPa 0,0 l/m 2 min 0 min 457 W/m 25,7 km/h (4 Bft) 97,87 %
30.06.2020 12:34 21,1 C 21,1 C 21,7 C 58 % 1010,4 hPa 0,0 l/m 0 min 0 min 198 W/m 22,5 km/h (4 Bft) 97,83 %
30.06.2020 12:36 21,1 C 20,6 C 21,1 C 58 % 1010,4 hPa 0,0 l/m 0 min 0 min 189 W/m 22,5 km/h (4 Bft) 97,87 %
30.06.2020 12:38 21,0 C 22,2 C 21,1 C 59 % 1010,4 hPa 0,0 l/m 0 min 0 min 251 W/m 16,1 km/h (3 Bft) 89,36 %
30.06.2020 12:40 21,0 C 22,8 C 21,7 C 59 % 1010,4 hPa 0,0 l/m 2 min 0 min 1109 W/m 16,1 km/h (3 Bft) 95,74 %
30.06.2020 12:42 21,0 C 21,7 C 21,1 C 59 % 1010,5 hPa 0,0 l/m 2 min 0 min 602 W/m 19,3 km/h (3 Bft) 95,74 %
30.06.2020 12:44 20,9 C 21,7 C 21,1 C 59 % 1010,4 hPa 0,0 l/m 0 min 0 min 227 W/m 22,5 km/h (4 Bft) 91,49 %
30.06.2020 12:46 20,9 C 21,1 C 21,1 C 59 % 1010,3 hPa 0,0 l/m 0 min 0 min 224 W/m 6,4 km/h (2 Bft) 86,96 %
30.06.2020 12:48 20,9 C 21,1 C 21,1 C 59 % 1010,4 hPa 0,0 l/m 0 min 0 min 261 W/m 16,1 km/h (3 Bft) 87,23 %
30.06.2020 12:50 20,9 C 21,1 C 21,1 C 59 % 1010,4 hPa 0,0 l/m 0 min 0 min 312 W/m 12,9 km/h (3 Bft) 89,36 %
30.06.2020 12:52 20,8 C 21,7 C 21,1 C 60 % 1010,4 hPa 0,0 l/m 0 min 0 min 338 W/m 19,3 km/h (3 Bft) 95,74 %
30.06.2020 12:54 20,9 C 23,9 C 21,7 C 60 % 1010,4 hPa 0,0 l/m 0 min 0 min 343 W/m 25,7 km/h (4 Bft) 97,87 %
30.06.2020 12:56 20,9 C 22,2 C 21,7 C 60 % 1010,5 hPa 0,0 l/m 0 min 0 min 331 W/m 22,5 km/h (4 Bft) 91,30 %
30.06.2020 12:58 20,9 C 21,7 C 21,1 C 60 % 1010,5 hPa 0,0 l/m 0 min 0 min 303 W/m 29,0 km/h (5 Bft) 89,36 %
30.06.2020 13:00 20,9 C 22,2 C 21,1 C 61 % 1010,5 hPa 0,0 l/m 0 min 0 min 273 W/m 16,1 km/h (3 Bft) 91,49 %
30.06.2020 13:02 20,9 C 21,1 C 21,1 C 60 % 1010,6 hPa 0,0 l/m 0 min 0 min 243 W/m 19,3 km/h (3 Bft) 91,49 %
30.06.2020 13:04 20,9 C 22,8 C 21,1 C 61 % 1010,5 hPa 0,0 l/m 0 min 0 min 252 W/m 16,1 km/h (3 Bft) 89,36 %
30.06.2020 13:06 21,0 C 22,2 C 21,7 C 61 % 1010,5 hPa 0,0 l/m 0 min 0 min 242 W/m 19,3 km/h (3 Bft) 93,62 %
30.06.2020 13:08 21,0 C 22,2 C 21,1 C 60 % 1010,4 hPa 0,0 l/m 0 min 0 min 215 W/m 19,3 km/h (3 Bft) 91,49 %
30.06.2020 13:10 21,1 C 22,8 C 21,1 C 60 % 1010,4 hPa 0,0 l/m 0 min 0 min 186 W/m 12,9 km/h (3 Bft) 89,13 %
30.06.2020 13:12 21,1 C 25,0 C 21,7 C 60 % 1010,4 hPa 0,0 l/m 2 min 0 min 803 W/m 22,5 km/h (4 Bft) 91,49 %
30.06.2020 13:14 21,2 C 26,1 C 22,8 C 60 % 1010,4 hPa 0,0 l/m 2 min 0 min 1156 W/m 29,0 km/h (5 Bft) 85,11 %
30.06.2020 13:16 21,3 C 25,6 C 22,8 C 59 % 1010,3 hPa 0,0 l/m 2 min 0 min 921 W/m 6,4 km/h (2 Bft) 93,62 %
30.06.2020 13:18 21,4 C 24,4 C 22,8 C 58 % 1010,3 hPa 0,0 l/m 0 min 0 min 437 W/m 19,3 km/h (3 Bft) 91,49 %
30.06.2020 13:20 21,5 C 24,4 C 22,8 C 59 % 1010,3 hPa 0,0 l/m 2 min 0 min 485 W/m 32,2 km/h (5 Bft) 93,48 %
30.06.2020 13:22 21,6 C 23,9 C 22,2 C 58 % 1010,2 hPa 0,0 l/m 2 min 0 min 567 W/m 35,4 km/h (5 Bft) 89,36 %
30.06.2020 13:24 21,6 C 23,3 C 22,2 C 58 % 1010,3 hPa 0,0 l/m 2 min 0 min 483 W/m 32,2 km/h (5 Bft) 87,23 %
30.06.2020 13:26 21,7 C 23,3 C 22,2 C 57 % 1010,3 hPa 0,0 l/m 0 min 0 min 404 W/m 22,5 km/h (4 Bft) 82,98 %
30.06.2020 13:28 21,7 C 22,8 C 21,7 C 57 % 1010,2 hPa 0,0 l/m 0 min 0 min 408 W/m 35,4 km/h (5 Bft) 93,62 %
30.06.2020 13:30 21,7 C 23,3 C 21,7 C 57 % 1010,2 hPa 0,0 l/m 2 min 0 min 537 W/m 12,9 km/h (3 Bft) 91,49 %
30.06.2020 13:32 21,7 C 23,9 C 22,2 C 58 % 1010,1 hPa 0,0 l/m 2 min 0 min 617 W/m 12,9 km/h (3 Bft) 90,38 %
30.06.2020 13:34 21,8 C 25,0 C 22,8 C 58 % 1010,2 hPa 0,0 l/m 2 min 0 min 663 W/m 19,3 km/h (3 Bft) 89,36 %
30.06.2020 13:36 21,9 C 25,6 C 22,8 C 59 % 1010,2 hPa 0,0 l/m 2 min 0 min 740 W/m 12,9 km/h (3 Bft) 95,74 %
30.06.2020 13:38 22,0 C 24,4 C 22,8 C 57 % 1010,2 hPa 0,0 l/m 2 min 0 min 531 W/m 25,7 km/h (4 Bft) 87,23 %
30.06.2020 13:40 22,1 C 24,4 C 22,8 C 57 % 1010,0 hPa 0,0 l/m 2 min 0 min 566 W/m 16,1 km/h (3 Bft) 95,74 %
30.06.2020 13:42 22,1 C 23,9 C 22,2 C 57 % 1010,2 hPa 0,0 l/m 2 min 0 min 461 W/m 22,5 km/h (4 Bft) 95,74 %
30.06.2020 13:44 22,1 C 23,9 C 22,2 C 57 % 1010,1 hPa 0,0 l/m 0 min 0 min 410 W/m 16,1 km/h (3 Bft) 78,26 %
30.06.2020 13:46 22,1 C 22,8 C 21,7 C 57 % 1010,3 hPa 0,0 l/m 0 min 0 min 283 W/m 25,7 km/h (4 Bft) 93,75 %
30.06.2020 13:48 22,0 C 21,7 C 21,1 C 55 % 1010,1 hPa 0,0 l/m 0 min 0 min 262 W/m 29,0 km/h (5 Bft) 97,87 %
30.06.2020 13:50 21,9 C 22,2 C 21,1 C 56 % 1010,1 hPa 0,0 l/m 0 min 0 min 295 W/m 29,0 km/h (5 Bft) 93,62 %
30.06.2020 13:52 21,8 C 22,8 C 21,7 C 56 % 1010,1 hPa 0,0 l/m 0 min 0 min 444 W/m 22,5 km/h (4 Bft) 91,49 %
30.06.2020 13:54 21,8 C 23,3 C 21,7 C 56 % 1010,1 hPa 0,0 l/m 2 min 0 min 553 W/m 22,5 km/h (4 Bft) 97,83 %
30.06.2020 13:56 21,8 C 23,3 C 22,2 C 57 % 1010,1 hPa 0,0 l/m 2 min 0 min 520 W/m 19,3 km/h (3 Bft) 97,87 %
30.06.2020 13:58 21,8 C 23,3 C 21,7 C 57 % 1010,1 hPa 0,0 l/m 0 min 0 min 448 W/m 16,1 km/h (3 Bft) 85,11 %
30.06.2020 14:00 21,9 C 23,3 C 21,7 C 57 % 1010,2 hPa 0,0 l/m 0 min 0 min 448 W/m 25,7 km/h (4 Bft) 100,00 %
30.06.2020 14:02 21,8 C 23,3 C 21,7 C 56 % 1010,2 hPa 0,0 l/m 2 min 0 min 454 W/m 25,7 km/h (4 Bft) 91,67 %
30.06.2020 14:04 21,8 C 24,4 C 22,2 C 57 % 1010,2 hPa 0,0 l/m 0 min 0 min 427 W/m 16,1 km/h (3 Bft) 89,36 %
30.06.2020 14:06 21,9 C 23,9 C 22,2 C 58 % 1010,1 hPa 0,0 l/m 2 min 0 min 577 W/m 12,9 km/h (3 Bft) 95,65 %
30.06.2020 14:08 21,9 C 22,8 C 22,2 C 57 % 1010,1 hPa 0,0 l/m 0 min 0 min 363 W/m 12,9 km/h (3 Bft) 87,23 %
30.06.2020 14:10 21,9 C 22,8 C 21,7 C 57 % 1010,1 hPa 0,0 l/m 0 min 0 min 359 W/m 19,3 km/h (3 Bft) 87,23 %
30.06.2020 14:12 21,9 C 22,2 C 21,7 C 57 % 1010,2 hPa 0,0 l/m 0 min 0 min 388 W/m 12,9 km/h (3 Bft) 89,74 %
30.06.2020 14:14 21,9 C 22,8 C 21,7 C 57 % 1010,2 hPa 0,0 l/m 0 min 0 min 443 W/m 12,9 km/h (3 Bft) 93,62 %
30.06.2020 14:16 21,9 C 23,3 C 21,7 C 57 % 1010,2 hPa 0,0 l/m 2 min 0 min 475 W/m 22,5 km/h (4 Bft) 97,87 %
30.06.2020 14:18 21,9 C 23,3 C 22,2 C 57 % 1010,1 hPa 0,0 l/m 0 min 0 min 436 W/m 19,3 km/h (3 Bft) 93,48 %
30.06.2020 14:20 21,9 C 23,3 C 21,7 C 56 % 1010,1 hPa 0,0 l/m 2 min 0 min 552 W/m 35,4 km/h (5 Bft) 91,49 %
30.06.2020 14:22 21,9 C 23,9 C 22,2 C 57 % 1010,1 hPa 0,0 l/m 2 min 0 min 562 W/m 19,3 km/h (3 Bft) 91,49 %
30.06.2020 14:24 22,0 C 23,9 C 22,2 C 57 % 1010,2 hPa 0,0 l/m 2 min 0 min 566 W/m 19,3 km/h (3 Bft) 85,11 %
30.06.2020 14:26 22,1 C 23,9 C 22,2 C 57 % 1010,1 hPa 0,0 l/m 2 min 0 min 607 W/m 22,5 km/h (4 Bft) 80,85 %
30.06.2020 14:28 22,1 C 23,3 C 22,2 C 57 % 1010,1 hPa 0,0 l/m 2 min 0 min 448 W/m 22,5 km/h (4 Bft) 97,87 %
30.06.2020 14:30 22,1 C 23,3 C 21,7 C 57 % 1010,1 hPa 0,0 l/m 0 min 0 min 367 W/m 19,3 km/h (3 Bft) 95,65 %
30.06.2020 14:32 22,1 C 25,0 C 21,7 C 57 % 1010,0 hPa 0,0 l/m 2 min 0 min 551 W/m 22,5 km/h (4 Bft) 95,74 %
30.06.2020 14:34 22,2 C 25,6 C 22,2 C 57 % 1010,1 hPa 0,0 l/m 2 min 0 min 852 W/m 19,3 km/h (3 Bft) 89,36 %
30.06.2020 14:36 22,2 C 25,6 C 22,8 C 57 % 1010,1 hPa 0,0 l/m 2 min 0 min 866 W/m 16,1 km/h (3 Bft) 95,74 %
30.06.2020 14:38 22,3 C 25,0 C 22,8 C 57 % 1010,1 hPa 0,0 l/m 2 min 0 min 616 W/m 19,3 km/h (3 Bft) 97,87 %
30.06.2020 14:40 22,4 C 24,4 C 22,8 C 56 % 1010,1 hPa 0,0 l/m 2 min 0 min 638 W/m 29,0 km/h (5 Bft) 97,87 %
30.06.2020 14:42 22,4 C 23,9 C 22,2 C 56 % 1010,0 hPa 0,0 l/m 0 min 0 min 424 W/m 16,1 km/h (3 Bft) 95,65 %
30.06.2020 14:44 22,4 C 23,9 C 22,2 C 56 % 1010,0 hPa 0,0 l/m 0 min 0 min 372 W/m 16,1 km/h (3 Bft) 100,00 %
30.06.2020 14:46 22,4 C 22,8 C 22,2 C 55 % 1009,9 hPa 0,0 l/m 0 min 0 min 391 W/m 29,0 km/h (5 Bft) 100,00 %
30.06.2020 14:48 22,4 C 22,2 C 21,7 C 55 % 1009,9 hPa 0,0 l/m 0 min 0 min 292 W/m 22,5 km/h (4 Bft) 100,00 %
30.06.2020 14:50 22,3 C 22,2 C 21,7 C 55 % 1010,0 hPa 0,0 l/m 0 min 0 min 301 W/m 35,4 km/h (5 Bft) 100,00 %
30.06.2020 14:52 22,3 C 22,2 C 21,7 C 55 % 1010,0 hPa 0,0 l/m 0 min 0 min 366 W/m 32,2 km/h (5 Bft) 97,87 %
30.06.2020 14:54 22,3 C 22,8 C 21,7 C 56 % 1009,9 hPa 0,0 l/m 0 min 0 min 378 W/m 22,5 km/h (4 Bft) 100,00 %
30.06.2020 14:56 22,2 C 23,3 C 21,7 C 56 % 1009,9 hPa 0,0 l/m 2 min 0 min 456 W/m 16,1 km/h (3 Bft) 100,00 %
30.06.2020 14:58 22,2 C 23,9 C 21,7 C 57 % 1009,9 hPa 0,0 l/m 2 min 0 min 550 W/m 22,5 km/h (4 Bft) 100,00 %
30.06.2020 15:00 22,3 C 25,0 C 22,2 C 56 % 1009,9 hPa 0,0 l/m 2 min 0 min 814 W/m 16,1 km/h (3 Bft) 97,87 %
30.06.2020 15:02 22,3 C 25,0 C 22,2 C 56 % 1010,0 hPa 0,0 l/m 2 min 0 min 601 W/m 25,7 km/h (4 Bft) 100,00 %
30.06.2020 15:04 22,4 C 25,6 C 22,2 C 56 % 1009,9 hPa 0,0 l/m 2 min 0 min 580 W/m 12,9 km/h (3 Bft) 100,00 %
30.06.2020 15:06 22,5 C 26,1 C 22,8 C 56 % 1009,9 hPa 0,0 l/m 2 min 0 min 580 W/m 22,5 km/h (4 Bft) 100,00 %
30.06.2020 15:08 22,6 C 25,0 C 22,8 C 55 % 1009,8 hPa 0,0 l/m 2 min 0 min 570 W/m 35,4 km/h (5 Bft) 100,00 %
30.06.2020 15:10 22,6 C 23,9 C 22,8 C 56 % 1009,8 hPa 0,0 l/m 2 min 0 min 470 W/m 22,5 km/h (4 Bft) 100,00 %
30.06.2020 15:12 22,7 C 24,4 C 22,2 C 56 % 1009,8 hPa 0,0 l/m 0 min 0 min 398 W/m 19,3 km/h (3 Bft) 97,87 %
30.06.2020 15:14 22,7 C 25,0 C 22,2 C 57 % 1009,8 hPa 0,0 l/m 0 min 0 min 404 W/m 12,9 km/h (3 Bft) 100,00 %
30.06.2020 15:16 22,8 C 24,4 C 22,8 C 57 % 1009,7 hPa 0,0 l/m 2 min 0 min 435 W/m 19,3 km/h (3 Bft) 100,00 %
30.06.2020 15:18 22,8 C 25,0 C 22,2 C 57 % 1009,8 hPa 0,0 l/m 2 min 0 min 508 W/m 35,4 km/h (5 Bft) 97,83 %
30.06.2020 15:20 22,9 C 26,7 C 22,8 C 57 % 1009,9 hPa 0,0 l/m 2 min 0 min 770 W/m 12,9 km/h (3 Bft) 97,87 %
30.06.2020 15:22 23,0 C 27,2 C 22,8 C 56 % 1009,8 hPa 0,0 l/m 2 min 0 min 1041 W/m 16,1 km/h (3 Bft) 95,74 %
30.06.2020 15:24 23,1 C 25,6 C 23,3 C 55 % 1009,8 hPa 0,0 l/m 2 min 0 min 809 W/m 32,2 km/h (5 Bft) 93,62 %
30.06.2020 15:26 23,2 C 25,0 C 22,8 C 55 % 1009,9 hPa 0,0 l/m 2 min 0 min 1006 W/m 16,1 km/h (3 Bft) 95,74 %
30.06.2020 15:28 23,2 C 24,4 C 22,8 C 55 % 1009,9 hPa 0,0 l/m 2 min 0 min 436 W/m 25,7 km/h (4 Bft) 95,65 %
30.06.2020 15:30 23,2 C 24,4 C 22,8 C 56 % 1009,8 hPa 0,0 l/m 2 min 0 min 451 W/m 22,5 km/h (4 Bft) 97,87 %
30.06.2020 15:32 23,2 C 23,9 C 22,8 C 55 % 1009,8 hPa 0,0 l/m 0 min 0 min 379 W/m 19,3 km/h (3 Bft) 95,74 %
30.06.2020 15:34 23,1 C 23,9 C 22,8 C 55 % 1009,9 hPa 0,0 l/m 0 min 0 min 320 W/m 16,1 km/h (3 Bft) 97,87 %
30.06.2020 15:36 23,1 C 23,3 C 22,2 C 55 % 1009,9 hPa 0,0 l/m 0 min 0 min 313 W/m 38,6 km/h (5 Bft) 97,87 %
30.06.2020 15:38 23,1 C 23,3 C 22,2 C 55 % 1009,9 hPa 0,0 l/m 0 min 0 min 375 W/m 22,5 km/h (4 Bft) 95,74 %
30.06.2020 15:40 23,0 C 23,3 C 22,2 C 56 % 1009,9 hPa 0,0 l/m 0 min 0 min 364 W/m 19,3 km/h (3 Bft) 95,65 %
30.06.2020 15:42 22,9 C 23,9 C 22,2 C 56 % 1009,9 hPa 0,0 l/m 2 min 0 min 419 W/m 16,1 km/h (3 Bft) 97,87 %
30.06.2020 15:44 22,9 C 24,4 C 22,2 C 56 % 1009,8 hPa 0,0 l/m 2 min 0 min 436 W/m 22,5 km/h (4 Bft) 95,74 %
30.06.2020 15:46 22,9 C 23,9 C 22,2 C 56 % 1009,8 hPa 0,0 l/m 2 min 0 min 408 W/m 19,3 km/h (3 Bft) 95,74 %
30.06.2020 15:48 22,9 C 24,4 C 22,8 C 57 % 1009,8 hPa 0,0 l/m 2 min 0 min 420 W/m 19,3 km/h (3 Bft) 97,87 %
30.06.2020 15:50 22,9 C 23,9 C 22,8 C 55 % 1009,8 hPa 0,0 l/m 2 min 0 min 459 W/m 16,1 km/h (3 Bft) 95,74 %
30.06.2020 15:52 22,9 C 23,3 C 22,2 C 56 % 1009,8 hPa 0,0 l/m 0 min 0 min 375 W/m 19,3 km/h (3 Bft) 98,08 %
30.06.2020 15:54 22,9 C 23,3 C 22,2 C 56 % 1009,7 hPa 0,0 l/m 0 min 0 min 400 W/m 22,5 km/h (4 Bft) 97,87 %
30.06.2020 15:56 22,9 C 23,3 C 21,7 C 56 % 1009,7 hPa 0,0 l/m 0 min 0 min 365 W/m 25,7 km/h (4 Bft) 97,14 %
30.06.2020 15:58 22,8 C 22,8 C 21,7 C 56 % 1009,7 hPa 0,0 l/m 0 min 0 min 355 W/m 32,2 km/h (5 Bft) 98,11 %
30.06.2020 16:00 22,8 C 22,8 C 21,7 C 56 % 1009,7 hPa 0,0 l/m 0 min 0 min 329 W/m 19,3 km/h (3 Bft) 97,87 %
30.06.2020 16:02 22,8 C 22,8 C 21,7 C 57 % 1009,6 hPa 0,0 l/m 0 min 0 min 279 W/m 16,1 km/h (3 Bft) 95,74 %
30.06.2020 16:04 22,7 C 22,8 C 21,7 C 57 % 1009,7 hPa 0,0 l/m 0 min 0 min 219 W/m 16,1 km/h (3 Bft) 97,83 %
30.06.2020 16:06 22,7 C 22,2 C 21,7 C 57 % 1009,8 hPa 0,0 l/m 0 min 0 min 169 W/m 16,1 km/h (3 Bft) 95,74 %
30.06.2020 16:08 22,6 C 21,7 C 21,7 C 57 % 1009,7 hPa 0,0 l/m 0 min 0 min 173 W/m 12,9 km/h (3 Bft) 97,87 %
30.06.2020 16:10 22,6 C 21,7 C 21,7 C 57 % 1009,7 hPa 0,0 l/m 0 min 0 min 207 W/m 9,7 km/h (2 Bft) 97,87 %
30.06.2020 16:12 22,5 C 22,2 C 21,7 C 58 % 1009,7 hPa 0,0 l/m 0 min 0 min 199 W/m 29,0 km/h (5 Bft) 95,74 %
30.06.2020 16:14 22,4 C 21,7 C 21,7 C 57 % 1009,7 hPa 0,0 l/m 0 min 0 min 178 W/m 22,5 km/h (4 Bft) 100,00 %
30.06.2020 16:16 22,3 C 21,7 C 21,7 C 57 % 1009,7 hPa 0,0 l/m 0 min 0 min 143 W/m 9,7 km/h (2 Bft) 93,48 %
30.06.2020 16:18 22,3 C 21,1 C 21,1 C 58 % 1009,7 hPa 0,0 l/m 0 min 0 min 129 W/m 6,4 km/h (2 Bft) 93,62 %
30.06.2020 16:20 22,2 C 21,1 C 21,1 C 59 % 1009,7 hPa 0,0 l/m 0 min 0 min 104 W/m 12,9 km/h (3 Bft) 97,87 %
30.06.2020 16:22 22,2 C 21,1 C 21,1 C 59 % 1009,7 hPa 0,0 l/m 0 min 0 min 87 W/m 9,7 km/h (2 Bft) 91,49 %
30.06.2020 16:24 22,1 C 21,1 C 21,1 C 59 % 1009,7 hPa 0,0 l/m 0 min 0 min 92 W/m 12,9 km/h (3 Bft) 97,87 %
30.06.2020 16:26 22,1 C 21,1 C 21,1 C 59 % 1009,7 hPa 0,0 l/m 0 min 0 min 113 W/m 16,1 km/h (3 Bft) 93,48 %
30.06.2020 16:28 22,0 C 21,1 C 21,1 C 60 % 1009,9 hPa 0,0 l/m 0 min 0 min 159 W/m 19,3 km/h (3 Bft) 95,74 %
30.06.2020 16:30 21,9 C 21,7 C 21,1 C 60 % 1009,8 hPa 0,0 l/m 0 min 0 min 243 W/m 16,1 km/h (3 Bft) 95,74 %
30.06.2020 16:32 21,9 C 21,7 C 21,1 C 62 % 1009,7 hPa 0,0 l/m 0 min 0 min 339 W/m 19,3 km/h (3 Bft) 89,36 %
30.06.2020 16:34 21,9 C 21,1 C 21,1 C 63 % 1009,8 hPa 0,0 l/m 0 min 0 min 288 W/m 16,1 km/h (3 Bft) 87,23 %
30.06.2020 16:36 21,9 C 21,7 C 21,1 C 63 % 1009,8 hPa 0,0 l/m 0 min 0 min 261 W/m 19,3 km/h (3 Bft) 95,74 %
30.06.2020 16:38 21,8 C 22,2 C 21,1 C 63 % 1009,8 hPa 0,0 l/m 0 min 0 min 261 W/m 12,9 km/h (3 Bft) 95,65 %
30.06.2020 16:40 21,8 C 22,2 C 21,1 C 62 % 1009,8 hPa 0,0 l/m 0 min 0 min 266 W/m 22,5 km/h (4 Bft) 93,62 %
30.06.2020 16:42 21,8 C 21,7 C 21,1 C 62 % 1009,9 hPa 0,0 l/m 0 min 0 min 252 W/m 25,7 km/h (4 Bft) 95,74 %
30.06.2020 16:44 21,8 C 21,7 C 21,1 C 63 % 1009,8 hPa 0,0 l/m 0 min 0 min 254 W/m 16,1 km/h (3 Bft) 93,62 %
30.06.2020 16:46 21,8 C 21,7 C 21,1 C 63 % 1009,8 hPa 0,0 l/m 0 min 0 min 247 W/m 25,7 km/h (4 Bft) 93,62 %
30.06.2020 16:48 21,7 C 21,7 C 21,1 C 63 % 1009,9 hPa 0,0 l/m 0 min 0 min 207 W/m 19,3 km/h (3 Bft) 89,36 %
30.06.2020 16:50 21,7 C 21,1 C 20,6 C 63 % 1009,9 hPa 0,0 l/m 0 min 0 min 173 W/m 25,7 km/h (4 Bft) 91,30 %
30.06.2020 16:52 21,6 C 20,6 C 20,6 C 63 % 1009,8 hPa 0,0 l/m 0 min 0 min 160 W/m 29,0 km/h (5 Bft) 91,49 %
30.06.2020 16:54 21,6 C 21,1 C 20,6 C 63 % 1009,8 hPa 0,0 l/m 0 min 0 min 169 W/m 38,6 km/h (5 Bft) 91,49 %
30.06.2020 16:56 21,6 C 21,1 C 20,6 C 64 % 1009,8 hPa 0,0 l/m 0 min 0 min 197 W/m 16,1 km/h (3 Bft) 95,74 %
30.06.2020 16:58 21,5 C 21,1 C 20,6 C 64 % 1009,7 hPa 0,0 l/m 0 min 0 min 209 W/m 12,9 km/h (3 Bft) 93,62 %
30.06.2020 17:00 21,5 C 21,1 C 20,6 C 65 % 1009,7 hPa 0,0 l/m 0 min 0 min 182 W/m 6,4 km/h (2 Bft) 93,62 %
30.06.2020 17:02 21,5 C 21,1 C 20,6 C 64 % 1009,8 hPa 0,0 l/m 0 min 0 min 161 W/m 9,7 km/h (2 Bft) 93,48 %
30.06.2020 17:04 21,4 C 21,1 C 20,6 C 64 % 1009,7 hPa 0,0 l/m 0 min 0 min 147 W/m 16,1 km/h (3 Bft) 93,62 %
30.06.2020 17:06 21,4 C 20,6 C 20,6 C 64 % 1009,6 hPa 0,0 l/m 0 min 0 min 135 W/m 16,1 km/h (3 Bft) 93,62 %
30.06.2020 17:08 21,4 C 20,6 C 20,6 C 65 % 1009,6 hPa 0,0 l/m 0 min 0 min 123 W/m 12,9 km/h (3 Bft) 93,62 %
30.06.2020 17:10 21,3 C 20,6 C 20,6 C 65 % 1009,6 hPa 0,0 l/m 0 min 0 min 113 W/m 9,7 km/h (2 Bft) 93,62 %
30.06.2020 17:12 21,3 C 20,6 C 20,6 C 65 % 1009,7 hPa 0,0 l/m 0 min 0 min 113 W/m 19,3 km/h (3 Bft) 95,74 %
30.06.2020 17:14 21,3 C 20,6 C 20,6 C 65 % 1009,7 hPa 0,0 l/m 0 min 0 min 127 W/m 19,3 km/h (3 Bft) 95,65 %
30.06.2020 17:16 21,3 C 20,6 C 20,6 C 65 % 1009,8 hPa 0,0 l/m 0 min 0 min 123 W/m 16,1 km/h (3 Bft) 93,33 %
30.06.2020 17:18 21,2 C 20,6 C 20,6 C 66 % 1009,8 hPa 0,0 l/m 0 min 0 min 137 W/m 19,3 km/h (3 Bft) 97,87 %
30.06.2020 17:20 21,2 C 20,6 C 20,6 C 66 % 1009,7 hPa 0,0 l/m 0 min 0 min 121 W/m 12,9 km/h (3 Bft) 95,74 %
30.06.2020 17:22 21,2 C 20,6 C 20,6 C 66 % 1009,7 hPa 0,0 l/m 0 min 0 min 159 W/m 12,9 km/h (3 Bft) 97,87 %
30.06.2020 17:24 21,1 C 20,6 C 20,6 C 66 % 1009,6 hPa 0,0 l/m 0 min 0 min 239 W/m 9,7 km/h (2 Bft) 95,74 %
30.06.2020 17:26 21,1 C 21,1 C 20,6 C 67 % 1009,6 hPa 0,0 l/m 0 min 0 min 243 W/m 12,9 km/h (3 Bft) 97,83 %
30.06.2020 17:28 21,1 C 21,1 C 20,6 C 67 % 1009,6 hPa 0,0 l/m 0 min 0 min 170 W/m 9,7 km/h (2 Bft) 97,87 %
30.06.2020 17:30 21,1 C 20,6 C 20,6 C 67 % 1009,6 hPa 0,0 l/m 0 min 2 min 126 W/m 29,0 km/h (5 Bft) 95,74 %
30.06.2020 17:32 21,1 C 20,0 C 20,0 C 66 % 1009,7 hPa 0,0 l/m 0 min 0 min 106 W/m 25,7 km/h (4 Bft) 97,92 %
30.06.2020 17:34 21,1 C 20,0 C 20,0 C 67 % 1009,7 hPa 0,0 l/m 0 min 0 min 80 W/m 16,1 km/h (3 Bft) 95,74 %
30.06.2020 17:36 21,0 C 20,0 C 20,0 C 67 % 1009,7 hPa 0,0 l/m 0 min 0 min 77 W/m 9,7 km/h (2 Bft) 95,74 %
30.06.2020 17:38 20,9 C 20,0 C 20,0 C 67 % 1009,7 hPa 0,0 l/m 0 min 0 min 63 W/m 12,9 km/h (3 Bft) 100,00 %
30.06.2020 17:40 20,9 C 20,0 C 20,0 C 67 % 1009,7 hPa 0,0 l/m 0 min 0 min 58 W/m 12,9 km/h (3 Bft) 97,87 %
30.06.2020 17:42 20,9 C 20,0 C 20,0 C 67 % 1009,7 hPa 0,0 l/m 0 min 0 min 64 W/m 3,2 km/h (1 Bft) 100,00 %
30.06.2020 17:44 20,9 C 20,0 C 20,0 C 67 % 1009,8 hPa 0,0 l/m 0 min 2 min 71 W/m 22,5 km/h (4 Bft) 95,74 %
30.06.2020 17:46 20,8 C 19,4 C 19,4 C 67 % 1009,7 hPa 0,0 l/m 0 min 0 min 86 W/m 25,7 km/h (4 Bft) 95,74 %
30.06.2020 17:48 20,8 C 18,9 C 19,4 C 68 % 1009,7 hPa 0,0 l/m 0 min 0 min 91 W/m 29,0 km/h (5 Bft) 95,74 %
30.06.2020 17:50 20,7 C 19,4 C 19,4 C 69 % 1009,6 hPa 0,0 l/m 0 min 2 min 101 W/m 9,7 km/h (2 Bft) 95,65 %
30.06.2020 17:52 20,7 C 19,4 C 19,4 C 69 % 1009,7 hPa 0,0 l/m 0 min 0 min 106 W/m 25,7 km/h (4 Bft) 95,74 %
30.06.2020 17:54 20,7 C 18,9 C 19,4 C 70 % 1009,6 hPa 0,0 l/m 0 min 0 min 92 W/m 16,1 km/h (3 Bft) 100,00 %
30.06.2020 17:56 20,6 C 18,9 C 19,4 C 71 % 1009,6 hPa 0,0 l/m 0 min 0 min 81 W/m 16,1 km/h (3 Bft) 93,62 %
30.06.2020 17:58 20,6 C 18,9 C 18,9 C 71 % 1009,6 hPa 0,0 l/m 0 min 0 min 72 W/m 6,4 km/h (2 Bft) 100,00 %
30.06.2020 18:00 20,4 C 18,9 C 18,9 C 71 % 1009,6 hPa 0,0 l/m 0 min 0 min 67 W/m 16,1 km/h (3 Bft) 89,36 %
30.06.2020 18:02 20,4 C 18,9 C 18,9 C 71 % 1009,8 hPa 0,0 l/m 0 min 0 min 56 W/m 22,5 km/h (4 Bft) 87,23 %
30.06.2020 18:04 20,3 C 18,9 C 18,9 C 71 % 1009,8 hPa 0,0 l/m 0 min 0 min 68 W/m 25,7 km/h (4 Bft) 87,23 %
30.06.2020 18:08 20,2 C 17,8 C 18,9 C 72 % 1009,8 hPa 0,0 l/m 0 min 4 min 76 W/m 22,5 km/h (4 Bft) 89,36 %
30.06.2020 18:10 20,1 C 17,2 C 18,3 C 73 % 1009,7 hPa 0,0 l/m 0 min 2 min 83 W/m 12,9 km/h (3 Bft) 97,87 %
30.06.2020 18:12 20,1 C 17,2 C 18,3 C 74 % 1009,7 hPa 0,0 l/m 0 min 2 min 93 W/m 6,4 km/h (2 Bft) 97,83 %
30.06.2020 18:14 20,0 C 16,7 C 18,3 C 75 % 1009,7 hPa 0,0 l/m 0 min 2 min 87 W/m 9,7 km/h (2 Bft) 93,62 %
30.06.2020 18:16 20,0 C 17,2 C 18,3 C 76 % 1009,7 hPa 0,0 l/m 0 min 2 min 76 W/m 9,7 km/h (2 Bft) 97,87 %
30.06.2020 18:18 19,9 C 17,2 C 18,3 C 76 % 1009,6 hPa 0,0 l/m 0 min 2 min 81 W/m 9,7 km/h (2 Bft) 92,73 %
30.06.2020 18:20 19,8 C 17,8 C 17,8 C 76 % 1009,6 hPa 0,0 l/m 0 min 0 min 76 W/m 6,4 km/h (2 Bft) 100,00 %
30.06.2020 18:22 19,8 C 17,8 C 17,8 C 77 % 1009,7 hPa 0,0 l/m 0 min 0 min 79 W/m 16,1 km/h (3 Bft) 97,83 %
30.06.2020 18:24 19,7 C 18,3 C 17,8 C 76 % 1009,7 hPa 0,0 l/m 0 min 0 min 114 W/m 9,7 km/h (2 Bft) 97,87 %
30.06.2020 18:26 19,7 C 17,8 C 17,8 C 76 % 1009,7 hPa 0,0 l/m 0 min 2 min 125 W/m 6,4 km/h (2 Bft) 97,87 %
30.06.2020 18:28 19,7 C 17,2 C 18,3 C 78 % 1009,7 hPa 0,0 l/m 0 min 2 min 110 W/m 0,0 km/h (0 Bft) 100,00 %
30.06.2020 18:30 19,7 C 16,7 C 17,8 C 78 % 1009,6 hPa 0,0 l/m 0 min 2 min 90 W/m 6,4 km/h (2 Bft) 97,87 %
30.06.2020 18:32 19,7 C 16,7 C 17,8 C 79 % 1009,7 hPa 0,0 l/m 0 min 2 min 91 W/m 3,2 km/h (1 Bft) 94,44 %
30.06.2020 18:34 19,7 C 16,7 C 17,8 C 80 % 1009,7 hPa 0,0 l/m 0 min 2 min 109 W/m 0,0 km/h (0 Bft) 93,62 %
30.06.2020 18:36 19,6 C 16,7 C 17,8 C 80 % 1009,7 hPa 0,0 l/m 0 min 2 min 110 W/m 3,2 km/h (1 Bft) 95,65 %
30.06.2020 18:38 19,6 C 16,7 C 17,8 C 81 % 1009,5 hPa 0,0 l/m 0 min 0 min 110 W/m 0,0 km/h (0 Bft) 94,92 %
30.06.2020 18:40 19,6 C 16,7 C 17,8 C 81 % 1009,5 hPa 0,0 l/m 0 min 0 min 125 W/m 0,0 km/h (0 Bft) 97,14 %
30.06.2020 18:42 19,6 C 17,2 C 17,8 C 81 % 1009,5 hPa 0,0 l/m 0 min 0 min 147 W/m 6,4 km/h (2 Bft) 95,74 %
30.06.2020 18:44 19,6 C 17,2 C 17,8 C 81 % 1009,5 hPa 0,0 l/m 0 min 0 min 145 W/m 6,4 km/h (2 Bft) 97,87 %
30.06.2020 18:46 19,5 C 17,8 C 17,8 C 81 % 1009,4 hPa 0,0 l/m 0 min 0 min 123 W/m 12,9 km/h (3 Bft) 91,30 %
30.06.2020 18:48 19,4 C 17,8 C 17,8 C 81 % 1009,5 hPa 0,0 l/m 0 min 0 min 115 W/m 12,9 km/h (3 Bft) 89,04 %
30.06.2020 18:50 19,4 C 18,3 C 17,8 C 80 % 1009,5 hPa 0,0 l/m 0 min 0 min 104 W/m 12,9 km/h (3 Bft) 85,11 %
30.06.2020 18:52 19,3 C 18,3 C 17,8 C 80 % 1009,4 hPa 0,0 l/m 0 min 0 min 101 W/m 9,7 km/h (2 Bft) 89,36 %
30.06.2020 18:54 19,3 C 18,3 C 17,8 C 80 % 1009,3 hPa 0,0 l/m 0 min 0 min 100 W/m 12,9 km/h (3 Bft) 91,49 %
30.06.2020 18:56 19,3 C 18,3 C 17,8 C 80 % 1009,3 hPa 0,0 l/m 0 min 0 min 98 W/m 6,4 km/h (2 Bft) 97,87 %
30.06.2020 18:58 19,2 C 18,3 C 17,8 C 80 % 1009,4 hPa 0,0 l/m 0 min 0 min 112 W/m 22,5 km/h (4 Bft) 86,96 %
30.06.2020 19:00 19,2 C 18,9 C 17,8 C 79 % 1009,3 hPa 0,0 l/m 0 min 0 min 126 W/m 6,4 km/h (2 Bft) 80,85 %
30.06.2020 19:02 19,2 C 18,9 C 17,8 C 79 % 1009,2 hPa 0,0 l/m 0 min 0 min 130 W/m 16,1 km/h (3 Bft) 87,23 %
30.06.2020 19:04 19,2 C 18,9 C 17,8 C 79 % 1009,2 hPa 0,0 l/m 0 min 0 min 113 W/m 6,4 km/h (2 Bft) 91,49 %
30.06.2020 19:06 19,2 C 18,9 C 17,8 C 79 % 1009,1 hPa 0,0 l/m 0 min 0 min 105 W/m 12,9 km/h (3 Bft) 91,49 %
30.06.2020 19:08 19,2 C 18,9 C 17,8 C 79 % 1009,0 hPa 0,0 l/m 0 min 0 min 99 W/m 16,1 km/h (3 Bft) 87,23 %
30.06.2020 19:10 19,2 C 18,9 C 17,8 C 79 % 1009,0 hPa 0,0 l/m 0 min 0 min 92 W/m 16,1 km/h (3 Bft) 86,96 %
30.06.2020 19:12 19,2 C 18,9 C 17,8 C 79 % 1009,0 hPa 0,0 l/m 0 min 0 min 84 W/m 6,4 km/h (2 Bft) 89,36 %
30.06.2020 19:14 19,2 C 18,9 C 17,8 C 79 % 1008,9 hPa 0,0 l/m 0 min 0 min 93 W/m 6,4 km/h (2 Bft) 85,11 %
30.06.2020 19:16 19,2 C 18,9 C 17,8 C 78 % 1008,9 hPa 0,0 l/m 0 min 0 min 133 W/m 6,4 km/h (2 Bft) 93,62 %
30.06.2020 19:18 19,2 C 18,9 C 18,3 C 78 % 1008,9 hPa 0,0 l/m 0 min 0 min 119 W/m 6,4 km/h (2 Bft) 87,23 %
30.06.2020 19:20 19,2 C 18,9 C 18,3 C 78 % 1008,8 hPa 0,0 l/m 0 min 0 min 97 W/m 12,9 km/h (3 Bft) 91,49 %
30.06.2020 19:22 19,2 C 18,9 C 18,3 C 78 % 1008,8 hPa 0,0 l/m 0 min 0 min 65 W/m 16,1 km/h (3 Bft) 91,30 %
30.06.2020 19:24 19,2 C 18,9 C 18,3 C 78 % 1008,7 hPa 0,0 l/m 0 min 0 min 59 W/m 25,7 km/h (4 Bft) 82,98 %
30.06.2020 19:26 19,2 C 18,9 C 18,3 C 78 % 1008,8 hPa 0,0 l/m 0 min 0 min 63 W/m 6,4 km/h (2 Bft) 82,98 %
30.06.2020 19:28 19,2 C 18,9 C 18,3 C 78 % 1008,8 hPa 0,0 l/m 0 min 0 min 67 W/m 6,4 km/h (2 Bft) 85,11 %
30.06.2020 19:30 19,3 C 18,9 C 18,3 C 77 % 1008,8 hPa 0,0 l/m 0 min 0 min 52 W/m 9,7 km/h (2 Bft) 80,85 %
30.06.2020 19:32 19,3 C 18,9 C 18,3 C 77 % 1008,8 hPa 0,0 l/m 0 min 0 min 52 W/m 6,4 km/h (2 Bft) 82,98 %
30.06.2020 19:34 19,3 C 18,9 C 18,3 C 77 % 1008,8 hPa 0,0 l/m 0 min 0 min 61 W/m 6,4 km/h (2 Bft) 65,22 %
30.06.2020 19:36 19,3 C 18,9 C 18,3 C 77 % 1008,8 hPa 0,0 l/m 0 min 0 min 58 W/m 0,0 km/h (0 Bft) 89,36 %
30.06.2020 19:38 19,3 C 18,9 C 18,3 C 77 % 1008,8 hPa 0,0 l/m 0 min 0 min 51 W/m 6,4 km/h (2 Bft) 93,48 %
30.06.2020 19:40 19,3 C 18,9 C 18,3 C 77 % 1008,8 hPa 0,0 l/m 0 min 0 min 54 W/m 0,0 km/h (0 Bft) 89,36 %
30.06.2020 19:42 19,3 C 18,9 C 18,3 C 77 % 1008,8 hPa 0,0 l/m 0 min 0 min 47 W/m 0,0 km/h (0 Bft) 82,98 %
30.06.2020 19:44 19,4 C 18,9 C 18,3 C 77 % 1008,8 hPa 0,0 l/m 0 min 0 min 35 W/m 0,0 km/h (0 Bft) 78,72 %
30.06.2020 19:46 19,4 C 18,9 C 18,3 C 77 % 1008,8 hPa 0,0 l/m 0 min 0 min 28 W/m 6,4 km/h (2 Bft) 86,96 %
30.06.2020 19:48 19,4 C 18,9 C 18,3 C 77 % 1008,9 hPa 0,0 l/m 0 min 0 min 29 W/m 3,2 km/h (1 Bft) 87,23 %
30.06.2020 19:50 19,4 C 18,9 C 18,3 C 77 % 1008,8 hPa 0,0 l/m 0 min 0 min 33 W/m 0,0 km/h (0 Bft) 72,34 %
30.06.2020 19:52 19,4 C 18,9 C 18,3 C 77 % 1008,8 hPa 0,0 l/m 0 min 0 min 32 W/m 3,2 km/h (1 Bft) 70,21 %
30.06.2020 19:54 19,4 C 18,9 C 18,3 C 77 % 1008,8 hPa 0,0 l/m 0 min 0 min 34 W/m 6,4 km/h (2 Bft) 76,60 %
30.06.2020 19:56 19,4 C 18,9 C 18,3 C 77 % 1008,8 hPa 0,0 l/m 0 min 0 min 35 W/m 12,9 km/h (3 Bft) 78,72 %
30.06.2020 19:58 19,4 C 18,9 C 18,3 C 76 % 1008,8 hPa 0,0 l/m 0 min 0 min 33 W/m 9,7 km/h (2 Bft) 78,26 %
30.06.2020 20:00 19,5 C 18,9 C 18,3 C 76 % 1008,7 hPa 0,0 l/m 0 min 0 min 28 W/m 6,4 km/h (2 Bft) 76,60 %
30.06.2020 20:02 19,5 C 18,9 C 18,3 C 76 % 1008,7 hPa 0,0 l/m 0 min 0 min 26 W/m 3,2 km/h (1 Bft) 84,91 %
30.06.2020 20:04 19,5 C 18,9 C 18,3 C 76 % 1008,8 hPa 0,0 l/m 0 min 0 min 24 W/m 6,4 km/h (2 Bft) 87,23 %
30.06.2020 20:06 19,5 C 18,9 C 18,3 C 76 % 1008,7 hPa 0,0 l/m 0 min 0 min 23 W/m 6,4 km/h (2 Bft) 93,62 %
30.06.2020 20:08 19,5 C 18,9 C 18,3 C 76 % 1008,7 hPa 0,0 l/m 0 min 0 min 24 W/m 3,2 km/h (1 Bft) 97,83 %
30.06.2020 20:10 19,5 C 18,9 C 18,3 C 76 % 1008,8 hPa 0,0 l/m 0 min 0 min 24 W/m 12,9 km/h (3 Bft) 97,87 %
30.06.2020 20:12 19,6 C 18,9 C 18,9 C 76 % 1008,7 hPa 0,0 l/m 0 min 0 min 23 W/m 12,9 km/h (3 Bft) 97,87 %
30.06.2020 20:14 19,6 C 18,9 C 18,9 C 75 % 1008,7 hPa 0,0 l/m 0 min 0 min 23 W/m 16,1 km/h (3 Bft) 95,74 %
30.06.2020 20:16 19,6 C 19,4 C 18,9 C 75 % 1008,8 hPa 0,0 l/m 0 min 0 min 23 W/m 16,1 km/h (3 Bft) 95,74 %
30.06.2020 20:18 19,7 C 19,4 C 18,9 C 75 % 1008,8 hPa 0,0 l/m 0 min 0 min 22 W/m 16,1 km/h (3 Bft) 97,87 %
30.06.2020 20:20 19,7 C 19,4 C 18,9 C 74 % 1008,9 hPa 0,0 l/m 0 min 0 min 20 W/m 22,5 km/h (4 Bft) 100,00 %
30.06.2020 20:22 19,7 C 19,4 C 18,9 C 74 % 1008,8 hPa 0,0 l/m 0 min 0 min 21 W/m 32,2 km/h (5 Bft) 95,74 %
30.06.2020 20:24 19,8 C 19,4 C 18,9 C 74 % 1008,9 hPa 0,0 l/m 0 min 0 min 24 W/m 16,1 km/h (3 Bft) 95,74 %
30.06.2020 20:26 19,9 C 19,4 C 18,9 C 74 % 1008,9 hPa 0,0 l/m 0 min 0 min 26 W/m 25,7 km/h (4 Bft) 97,87 %
30.06.2020 20:28 19,9 C 19,4 C 18,9 C 74 % 1008,9 hPa 0,0 l/m 0 min 0 min 30 W/m 16,1 km/h (3 Bft) 97,87 %
30.06.2020 20:30 19,9 C 19,4 C 18,9 C 74 % 1008,9 hPa 0,0 l/m 0 min 0 min 28 W/m 19,3 km/h (3 Bft) 97,87 %
30.06.2020 20:32 19,9 C 19,4 C 18,9 C 74 % 1008,9 hPa 0,0 l/m 0 min 0 min 23 W/m 12,9 km/h (3 Bft) 97,83 %
30.06.2020 20:34 20,0 C 18,9 C 18,9 C 74 % 1009,0 hPa 0,0 l/m 0 min 0 min 20 W/m 22,5 km/h (4 Bft) 97,87 %
30.06.2020 20:36 20,0 C 18,9 C 18,9 C 74 % 1008,9 hPa 0,0 l/m 0 min 2 min 14 W/m 12,9 km/h (3 Bft) 97,87 %
30.06.2020 20:38 20,0 C 17,2 C 18,9 C 75 % 1008,9 hPa 0,0 l/m 0 min 2 min 13 W/m 12,9 km/h (3 Bft) 100,00 %
30.06.2020 20:40 20,0 C 16,7 C 18,3 C 76 % 1008,9 hPa 0,0 l/m 0 min 2 min 14 W/m 9,7 km/h (2 Bft) 98,18 %
30.06.2020 20:42 20,0 C 16,7 C 18,3 C 77 % 1008,9 hPa 0,0 l/m 0 min 2 min 13 W/m 19,3 km/h (3 Bft) 100,00 %
30.06.2020 20:44 19,9 C 16,7 C 17,8 C 78 % 1008,9 hPa 0,0 l/m 0 min 2 min 14 W/m 12,9 km/h (3 Bft) 97,87 %
30.06.2020 20:46 19,9 C 16,7 C 17,8 C 78 % 1008,9 hPa 0,0 l/m 0 min 2 min 13 W/m 19,3 km/h (3 Bft) 100,00 %
30.06.2020 20:48 19,8 C 16,7 C 17,8 C 78 % 1008,8 hPa 0,0 l/m 0 min 2 min 12 W/m 12,9 km/h (3 Bft) 100,00 %
30.06.2020 20:50 19,8 C 16,7 C 17,8 C 78 % 1008,8 hPa 0,0 l/m 0 min 2 min 12 W/m 9,7 km/h (2 Bft) 100,00 %
30.06.2020 20:52 19,7 C 17,2 C 17,8 C 79 % 1008,8 hPa 0,0 l/m 0 min 2 min 12 W/m 6,4 km/h (2 Bft) 100,00 %
30.06.2020 20:54 19,6 C 17,2 C 17,8 C 79 % 1008,8 hPa 0,0 l/m 0 min 2 min 11 W/m 19,3 km/h (3 Bft) 100,00 %
30.06.2020 20:56 19,6 C 17,2 C 17,8 C 79 % 1008,7 hPa 0,0 l/m 0 min 2 min 12 W/m 9,7 km/h (2 Bft) 97,87 %
30.06.2020 20:58 19,5 C 17,2 C 17,2 C 79 % 1008,7 hPa 0,0 l/m 0 min 0 min 12 W/m 6,4 km/h (2 Bft) 100,00 %
30.06.2020 21:00 19,4 C 17,2 C 17,2 C 79 % 1008,6 hPa 0,0 l/m 0 min 2 min 12 W/m 3,2 km/h (1 Bft) 100,00 %
30.06.2020 21:02 19,4 C 17,2 C 17,2 C 80 % 1008,6 hPa 0,0 l/m 0 min 2 min 12 W/m 12,9 km/h (3 Bft) 100,00 %
30.06.2020 21:04 19,3 C 17,2 C 17,2 C 80 % 1008,6 hPa 0,0 l/m 0 min 2 min 12 W/m 12,9 km/h (3 Bft) 100,00 %
30.06.2020 21:06 19,3 C 17,2 C 17,2 C 80 % 1008,6 hPa 0,0 l/m 0 min 2 min 12 W/m 12,9 km/h (3 Bft) 100,00 %
30.06.2020 21:08 19,3 C 16,7 C 17,2 C 80 % 1008,6 hPa 0,0 l/m 0 min 2 min 9 W/m 3,2 km/h (1 Bft) 100,00 %
30.06.2020 21:10 19,3 C 16,7 C 17,2 C 80 % 1008,7 hPa 0,0 l/m 0 min 2 min 8 W/m 12,9 km/h (3 Bft) 100,00 %
30.06.2020 21:12 19,2 C 16,7 C 17,2 C 80 % 1008,7 hPa 0,0 l/m 0 min 2 min 7 W/m 3,2 km/h (1 Bft) 100,00 %
30.06.2020 21:14 19,2 C 16,7 C 17,2 C 81 % 1008,6 hPa 0,0 l/m 0 min 2 min 7 W/m 19,3 km/h (3 Bft) 100,00 %
30.06.2020 21:16 19,2 C 16,7 C 17,2 C 81 % 1008,7 hPa 0,0 l/m 0 min 2 min 7 W/m 12,9 km/h (3 Bft) 100,00 %
30.06.2020 21:18 19,1 C 16,7 C 17,2 C 81 % 1008,6 hPa 0,0 l/m 0 min 0 min 7 W/m 3,2 km/h (1 Bft) 97,87 %
30.06.2020 21:20 19,1 C 16,7 C 17,2 C 82 % 1008,6 hPa 0,0 l/m 0 min 0 min 7 W/m 6,4 km/h (2 Bft) 100,00 %
30.06.2020 21:22 19,1 C 16,7 C 17,2 C 82 % 1008,7 hPa 0,0 l/m 0 min 2 min 5 W/m 9,7 km/h (2 Bft) 100,00 %
30.06.2020 21:24 19,1 C 16,7 C 17,2 C 82 % 1008,7 hPa 0,0 l/m 0 min 2 min 5 W/m 22,5 km/h (4 Bft) 100,00 %
30.06.2020 21:26 19,0 C 16,7 C 17,2 C 82 % 1008,6 hPa 0,0 l/m 0 min 2 min 5 W/m 16,1 km/h (3 Bft) 100,00 %
30.06.2020 21:28 18,9 C 16,7 C 17,2 C 82 % 1008,6 hPa 0,0 l/m 0 min 2 min 5 W/m 9,7 km/h (2 Bft) 100,00 %
30.06.2020 21:30 18,9 C 16,7 C 17,2 C 82 % 1008,6 hPa 0,2 l/m 0 min 2 min 4 W/m 16,1 km/h (3 Bft) 100,00 %
30.06.2020 21:32 18,9 C 16,7 C 17,2 C 82 % 1008,6 hPa 0,0 l/m 0 min 2 min 2 W/m 19,3 km/h (3 Bft) 97,83 %
30.06.2020 21:34 18,9 C 16,7 C 17,2 C 82 % 1008,7 hPa 0,0 l/m 0 min 0 min 4 W/m 6,4 km/h (2 Bft) 100,00 %
30.06.2020 21:36 18,8 C 16,7 C 17,2 C 83 % 1008,6 hPa 0,0 l/m 0 min 2 min 0 W/m 12,9 km/h (3 Bft) 100,00 %
30.06.2020 21:38 18,8 C 16,7 C 17,2 C 83 % 1008,6 hPa 0,0 l/m 0 min 0 min 0 W/m 6,4 km/h (2 Bft) 100,00 %
30.06.2020 21:40 18,8 C 16,7 C 17,2 C 83 % 1008,6 hPa 0,0 l/m 0 min 0 min 0 W/m 12,9 km/h (3 Bft) 100,00 %
30.06.2020 21:42 18,8 C 16,7 C 17,2 C 83 % 1008,5 hPa 0,0 l/m 0 min 0 min 0 W/m 6,4 km/h (2 Bft) 100,00 %
30.06.2020 21:44 18,8 C 16,7 C 17,2 C 83 % 1008,5 hPa 0,0 l/m 0 min 2 min 0 W/m 12,9 km/h (3 Bft) 100,00 %
30.06.2020 21:46 18,8 C 16,7 C 17,2 C 83 % 1008,5 hPa 0,0 l/m 0 min 0 min 0 W/m 22,5 km/h (4 Bft) 100,00 %
30.06.2020 21:48 18,7 C 17,2 C 17,2 C 83 % 1008,5 hPa 0,0 l/m 0 min 0 min 0 W/m 12,9 km/h (3 Bft) 100,00 %
30.06.2020 21:50 18,7 C 17,2 C 17,2 C 84 % 1008,5 hPa 0,0 l/m 0 min 2 min 0 W/m 12,9 km/h (3 Bft) 100,00 %
30.06.2020 21:52 18,7 C 17,2 C 17,2 C 84 % 1008,5 hPa 0,0 l/m 0 min 0 min 0 W/m 12,9 km/h (3 Bft) 93,62 %
30.06.2020 21:54 18,7 C 17,2 C 16,7 C 84 % 1008,5 hPa 0,0 l/m 0 min 0 min 0 W/m 12,9 km/h (3 Bft) 100,00 %
30.06.2020 21:56 18,7 C 17,2 C 17,2 C 84 % 1008,5 hPa 0,0 l/m 0 min 0 min 0 W/m 6,4 km/h (2 Bft) 97,87 %
30.06.2020 21:58 18,6 C 17,2 C 17,2 C 84 % 1008,5 hPa 0,0 l/m 0 min 0 min 0 W/m 6,4 km/h (2 Bft) 100,00 %
30.06.2020 22:00 18,6 C 17,2 C 16,7 C 84 % 1008,5 hPa 0,0 l/m 0 min 0 min 0 W/m 12,9 km/h (3 Bft) 97,87 %
30.06.2020 22:02 18,6 C 17,8 C 17,2 C 84 % 1008,5 hPa 0,0 l/m 0 min 0 min 0 W/m 16,1 km/h (3 Bft) 97,87 %
30.06.2020 22:04 18,6 C 17,8 C 17,2 C 84 % 1008,5 hPa 0,0 l/m 0 min 0 min 0 W/m 6,4 km/h (2 Bft) 97,87 %
30.06.2020 22:06 18,6 C 17,8 C 17,2 C 84 % 1008,6 hPa 0,0 l/m 0 min 0 min 0 W/m 12,9 km/h (3 Bft) 97,83 %
30.06.2020 22:08 18,6 C 17,8 C 17,2 C 84 % 1008,5 hPa 0,0 l/m 0 min 0 min 0 W/m 3,2 km/h (1 Bft) 95,74 %
30.06.2020 22:10 18,6 C 17,8 C 17,2 C 84 % 1008,6 hPa 0,0 l/m 0 min 0 min 0 W/m 12,9 km/h (3 Bft) 95,74 %
30.06.2020 22:12 18,6 C 17,8 C 17,2 C 84 % 1008,6 hPa 0,0 l/m 0 min 0 min 0 W/m 6,4 km/h (2 Bft) 95,74 %
30.06.2020 22:14 18,5 C 17,8 C 17,2 C 84 % 1008,5 hPa 0,0 l/m 0 min 0 min 0 W/m 3,2 km/h (1 Bft) 93,62 %
30.06.2020 22:16 18,6 C 17,8 C 17,2 C 84 % 1008,5 hPa 0,0 l/m 0 min 0 min 0 W/m 3,2 km/h (1 Bft) 95,74 %
30.06.2020 22:18 18,5 C 17,8 C 17,2 C 84 % 1008,5 hPa 0,0 l/m 0 min 0 min 0 W/m 3,2 km/h (1 Bft) 95,65 %
30.06.2020 22:20 18,5 C 17,8 C 17,2 C 84 % 1008,5 hPa 0,0 l/m 0 min 0 min 0 W/m 12,9 km/h (3 Bft) 95,74 %
30.06.2020 22:22 18,5 C 17,8 C 17,2 C 84 % 1008,6 hPa 0,0 l/m 0 min 0 min 0 W/m 16,1 km/h (3 Bft) 96,36 %
30.06.2020 22:24 18,5 C 17,8 C 17,2 C 84 % 1008,6 hPa 0,0 l/m 0 min 0 min 0 W/m 6,4 km/h (2 Bft) 97,87 %
30.06.2020 22:26 18,5 C 17,8 C 17,2 C 84 % 1008,6 hPa 0,0 l/m 0 min 0 min 0 W/m 16,1 km/h (3 Bft) 95,74 %
30.06.2020 22:28 18,5 C 17,8 C 17,2 C 83 % 1008,6 hPa 0,0 l/m 0 min 0 min 0 W/m 12,9 km/h (3 Bft) 91,30 %
30.06.2020 22:30 18,5 C 17,8 C 17,2 C 83 % 1008,6 hPa 0,0 l/m 0 min 0 min 0 W/m 6,4 km/h (2 Bft) 93,62 %
30.06.2020 22:32 18,5 C 17,8 C 17,2 C 83 % 1008,6 hPa 0,0 l/m 0 min 0 min 0 W/m 6,4 km/h (2 Bft) 91,49 %
30.06.2020 22:34 18,5 C 17,8 C 17,2 C 83 % 1008,6 hPa 0,0 l/m 0 min 0 min 0 W/m 6,4 km/h (2 Bft) 91,49 %
30.06.2020 22:36 18,5 C 17,8 C 17,2 C 83 % 1008,6 hPa 0,0 l/m 0 min 0 min 0 W/m 9,7 km/h (2 Bft) 93,62 %
30.06.2020 22:38 18,5 C 17,8 C 17,2 C 83 % 1008,6 hPa 0,0 l/m 0 min 0 min 0 W/m 9,7 km/h (2 Bft) 94,74 %
30.06.2020 22:40 18,6 C 17,8 C 17,2 C 83 % 1008,5 hPa 0,0 l/m 0 min 0 min 0 W/m 6,4 km/h (2 Bft) 93,75 %
30.06.2020 22:42 18,6 C 17,8 C 17,2 C 83 % 1008,6 hPa 0,0 l/m 0 min 0 min 0 W/m 3,2 km/h (1 Bft) 95,65 %
30.06.2020 22:44 18,6 C 17,8 C 17,2 C 83 % 1008,6 hPa 0,0 l/m 0 min 0 min 0 W/m 6,4 km/h (2 Bft) 91,49 %
30.06.2020 22:46 18,6 C 17,8 C 17,2 C 83 % 1008,6 hPa 0,0 l/m 0 min 0 min 0 W/m 16,1 km/h (3 Bft) 93,62 %
30.06.2020 22:48 18,6 C 17,8 C 17,2 C 83 % 1008,6 hPa 0,0 l/m 0 min 0 min 0 W/m 16,1 km/h (3 Bft) 91,49 %
30.06.2020 22:50 18,6 C 17,8 C 17,2 C 82 % 1008,6 hPa 0,0 l/m 0 min 0 min 0 W/m 16,1 km/h (3 Bft) 95,74 %
30.06.2020 22:52 18,6 C 17,8 C 17,2 C 82 % 1008,6 hPa 0,0 l/m 0 min 0 min 0 W/m 16,1 km/h (3 Bft) 97,83 %
30.06.2020 22:54 18,6 C 17,8 C 17,8 C 82 % 1008,7 hPa 0,0 l/m 0 min 0 min 0 W/m 12,9 km/h (3 Bft) 100,00 %
30.06.2020 22:56 18,6 C 17,8 C 17,8 C 82 % 1008,8 hPa 0,0 l/m 0 min 0 min 0 W/m 6,4 km/h (2 Bft) 93,62 %
30.06.2020 22:58 18,6 C 17,8 C 17,2 C 82 % 1008,7 hPa 0,0 l/m 0 min 0 min 0 W/m 9,7 km/h (2 Bft) 95,74 %
30.06.2020 23:00 18,6 C 17,8 C 17,8 C 82 % 1008,7 hPa 0,0 l/m 0 min 0 min 0 W/m 19,3 km/h (3 Bft) 95,74 %
30.06.2020 23:02 18,7 C 18,3 C 17,8 C 82 % 1008,7 hPa 0,0 l/m 0 min 0 min 0 W/m 22,5 km/h (4 Bft) 97,83 %
30.06.2020 23:04 18,7 C 18,3 C 17,8 C 82 % 1008,8 hPa 0,0 l/m 0 min 0 min 0 W/m 35,4 km/h (5 Bft) 95,74 %
30.06.2020 23:06 18,7 C 18,3 C 17,8 C 82 % 1008,6 hPa 0,0 l/m 0 min 0 min 0 W/m 25,7 km/h (4 Bft) 93,62 %
30.06.2020 23:08 18,8 C 18,3 C 17,8 C 81 % 1008,7 hPa 0,0 l/m 0 min 0 min 0 W/m 16,1 km/h (3 Bft) 93,62 %
30.06.2020 23:10 18,8 C 18,3 C 17,8 C 81 % 1008,7 hPa 0,0 l/m 0 min 0 min 0 W/m 16,1 km/h (3 Bft) 98,11 %
30.06.2020 23:12 18,8 C 18,3 C 17,8 C 81 % 1008,6 hPa 0,0 l/m 0 min 0 min 0 W/m 35,4 km/h (5 Bft) 97,87 %
30.06.2020 23:14 18,9 C 18,3 C 17,8 C 81 % 1008,6 hPa 0,0 l/m 0 min 0 min 0 W/m 19,3 km/h (3 Bft) 97,83 %
30.06.2020 23:16 18,9 C 18,3 C 17,8 C 81 % 1008,7 hPa 0,0 l/m 0 min 0 min 0 W/m 22,5 km/h (4 Bft) 95,74 %
30.06.2020 23:18 18,9 C 18,3 C 17,8 C 81 % 1008,7 hPa 0,0 l/m 0 min 0 min 0 W/m 12,9 km/h (3 Bft) 95,74 %
30.06.2020 23:20 18,9 C 18,3 C 17,8 C 81 % 1008,7 hPa 0,0 l/m 0 min 0 min 0 W/m 19,3 km/h (3 Bft) 97,87 %
30.06.2020 23:22 19,0 C 18,3 C 17,8 C 81 % 1008,7 hPa 0,0 l/m 0 min 0 min 0 W/m 25,7 km/h (4 Bft) 97,87 %
30.06.2020 23:24 19,0 C 18,3 C 17,8 C 81 % 1008,6 hPa 0,0 l/m 0 min 0 min 0 W/m 16,1 km/h (3 Bft) 97,87 %
30.06.2020 23:26 19,0 C 18,3 C 17,8 C 81 % 1008,6 hPa 0,0 l/m 0 min 0 min 0 W/m 22,5 km/h (4 Bft) 95,65 %
30.06.2020 23:28 19,0 C 18,3 C 17,8 C 81 % 1008,6 hPa 0,0 l/m 0 min 0 min 0 W/m 19,3 km/h (3 Bft) 97,87 %
30.06.2020 23:30 19,0 C 18,3 C 17,8 C 81 % 1008,6 hPa 0,0 l/m 0 min 0 min 0 W/m 16,1 km/h (3 Bft) 97,87 %
30.06.2020 23:32 19,0 C 18,3 C 17,8 C 81 % 1008,6 hPa 0,0 l/m 0 min 0 min 0 W/m 16,1 km/h (3 Bft) 97,87 %
30.06.2020 23:34 19,1 C 18,3 C 17,8 C 81 % 1008,7 hPa 0,0 l/m 0 min 0 min 0 W/m 16,1 km/h (3 Bft) 93,62 %
30.06.2020 23:36 19,0 C 18,3 C 17,8 C 81 % 1008,7 hPa 0,0 l/m 0 min 0 min 0 W/m 16,1 km/h (3 Bft) 97,87 %
30.06.2020 23:38 19,1 C 18,3 C 17,8 C 81 % 1008,7 hPa 0,0 l/m 0 min 0 min 0 W/m 32,2 km/h (5 Bft) 97,83 %
30.06.2020 23:40 19,1 C 18,3 C 17,8 C 81 % 1008,7 hPa 0,0 l/m 0 min 0 min 0 W/m 16,1 km/h (3 Bft) 98,00 %
30.06.2020 23:42 19,1 C 18,3 C 17,8 C 81 % 1008,8 hPa 0,0 l/m 0 min 0 min 0 W/m 19,3 km/h (3 Bft) 57,45 %
30.06.2020 23:44 19,1 C 18,3 C 17,8 C 81 % 1008,7 hPa 0,0 l/m 0 min 0 min 0 W/m 32,2 km/h (5 Bft) 97,73 %
30.06.2020 23:46 19,1 C 18,3 C 17,8 C 81 % 1008,7 hPa 0,0 l/m 0 min 0 min 0 W/m 32,2 km/h (5 Bft) 100,00 %
30.06.2020 23:48 19,1 C 18,3 C 17,8 C 81 % 1008,7 hPa 0,0 l/m 0 min 0 min 0 W/m 19,3 km/h (3 Bft) 100,00 %
30.06.2020 23:50 19,2 C 18,3 C 17,8 C 82 % 1008,7 hPa 0,0 l/m 0 min 0 min 0 W/m 32,2 km/h (5 Bft) 100,00 %
30.06.2020 23:52 19,2 C 17,8 C 17,8 C 82 % 1008,7 hPa 0,0 l/m 0 min 0 min 0 W/m 16,1 km/h (3 Bft) 100,00 %
30.06.2020 23:54 19,1 C 17,8 C 17,8 C 82 % 1008,6 hPa 0,0 l/m 0 min 0 min 0 W/m 12,9 km/h (3 Bft) 97,87 %
30.06.2020 23:56 19,1 C 17,8 C 17,8 C 82 % 1008,7 hPa 0,0 l/m 0 min 0 min 0 W/m 19,3 km/h (3 Bft) 100,00 %
30.06.2020 23:58 19,1 C 17,8 C 17,8 C 82 % 1008,7 hPa 0,0 l/m 0 min 0 min 0 W/m 22,5 km/h (4 Bft) 100,00 %
_ Min-Zeit 05:18 04:44 05:06 13:48 21:42 - - - - 00:50 03:12
Minimum _ 13,4 C 12,2 C 12,2 C 55 % 1008,5 hPa - - - - 0,0 km/h (0 Bft) 53,66 %
_ Max-Zeit 15:26 15:22 10:56 21:50 00:02 21:30 12:08 18:08 13:14 07:40 00:00
Maximum _ 23,2 C 27,2 C 23,9 C 84 % 1011,8 hPa 0,2 l/m 4 min 4 min 1156 W/m 38,6 km/h
SO (5 Bft)
100,00 %
Durchschnitt _ 18,0 C 18,0 C 17,5 C 71 % 1010,1 hPa #0,2 l/m #3:50 h #1:30 h 256 W/m 15,9 km/h (3 Bft) 95,81 %
© 2020 W. Hausmann